Wetterdaten: aktuell Dienstag, 19.02.2019 04:12
Datum Zeit Temp. 2m Temp. 5cm Feuchte 2m Luftdruck Regen Wind Richtung Richtung Taupunkt Windchill Windben
19.02.2019 04:12 -1,3 C -0,7 C 70 % 1022,7 hPa 0,0 l/m 11,6 km/h (2 Bft) S-SW 202 -6,0 C -6,2 C 14,5 km/h (3 Bft)
19.02.2019 04:10 -1,3 C -0,7 C 70 % 1022,7 hPa 0,0 l/m 10,9 km/h (2 Bft) SW 225 -6,0 C -5,6 C 13,0 km/h (3 Bft)
19.02.2019 04:08 -1,3 C -0,8 C 70 % 1022,7 hPa 0,0 l/m 10,4 km/h (2 Bft) S-SW 202 -6,0 C -5,2 C 10,1 km/h (2 Bft)
19.02.2019 04:06 -1,3 C -0,7 C 70 % 1022,7 hPa 0,0 l/m 10,4 km/h (2 Bft) SW 225 -6,0 C -5,2 C 10,6 km/h (2 Bft)
19.02.2019 04:04 -1,3 C -0,7 C 70 % 1022,7 hPa 0,0 l/m 10,1 km/h (2 Bft) S-SW 202 -6,0 C -5,0 C 12,3 km/h (3 Bft)
19.02.2019 04:02 -1,3 C -0,7 C 70 % 1022,7 hPa 0,0 l/m 9,4 km/h (2 Bft) S-SW 202 -6,0 C -4,4 C 10,9 km/h (2 Bft)
19.02.2019 04:00 -1,2 C -0,8 C 70 % 1022,6 hPa 0,0 l/m 9,2 km/h (2 Bft) SW 225 -6,0 C -4,1 C 8,9 km/h (2 Bft)
19.02.2019 03:58 -1,2 C -0,7 C 70 % 1022,6 hPa 0,0 l/m 8,9 km/h (2 Bft) SW 225 -6,0 C -3,8 C 9,9 km/h (2 Bft)
19.02.2019 03:56 -1,2 C -0,7 C 70 % 1022,6 hPa 0,0 l/m 8,9 km/h (2 Bft) SW 225 -6,0 C -3,8 C 10,1 km/h (2 Bft)
19.02.2019 03:54 -1,2 C -0,7 C 70 % 1022,6 hPa 0,0 l/m 9,2 km/h (2 Bft) SW 225 -6,0 C -4,1 C 9,7 km/h (2 Bft)
19.02.2019 03:52 -1,2 C -0,7 C 69 % 1022,6 hPa 0,0 l/m 9,4 km/h (2 Bft) S-SW 202 -6,1 C -4,2 C 8,2 km/h (2 Bft)
19.02.2019 03:50 -1,2 C -0,6 C 69 % 1022,6 hPa 0,0 l/m 9,7 km/h (2 Bft) SW 225 -6,1 C -4,5 C 9,2 km/h (2 Bft)
19.02.2019 03:48 -1,2 C -0,6 C 69 % 1022,6 hPa 0,0 l/m 9,7 km/h (2 Bft) SW 225 -6,1 C -4,5 C 9,7 km/h (2 Bft)
19.02.2019 03:46 -1,2 C -0,6 C 69 % 1022,6 hPa 0,0 l/m 10,1 km/h (2 Bft) SW 225 -6,1 C -4,9 C 12,3 km/h (3 Bft)
19.02.2019 03:44 -1,2 C -0,5 C 69 % 1022,6 hPa 0,0 l/m 10,1 km/h (2 Bft) S-SW 202 -6,1 C -4,9 C 10,9 km/h (2 Bft)
19.02.2019 03:42 -1,2 C -0,3 C 69 % 1022,6 hPa 0,0 l/m 10,4 km/h (2 Bft) SW 225 -6,1 C -5,1 C 11,8 km/h (2 Bft)
19.02.2019 03:40 -1,0 C -0,3 C 69 % 1022,7 hPa 0,0 l/m 10,1 km/h (2 Bft) SW 225 -5,9 C -4,6 C 10,9 km/h (2 Bft)
19.02.2019 03:38 -1,0 C -0,5 C 69 % 1022,7 hPa 0,0 l/m 10,4 km/h (2 Bft) S-SW 202 -5,9 C -4,9 C 9,2 km/h (2 Bft)
19.02.2019 03:36 -1,0 C -0,5 C 69 % 1022,7 hPa 0,0 l/m 10,4 km/h (2 Bft) SW 225 -5,9 C -4,9 C 10,4 km/h (2 Bft)
19.02.2019 03:34 -1,0 C -0,5 C 69 % 1022,7 hPa 0,0 l/m 10,4 km/h (2 Bft) SW 225 -5,9 C -4,9 C 12,3 km/h (3 Bft)
19.02.2019 03:32 -1,0 C -0,5 C 69 % 1022,7 hPa 0,0 l/m 10,1 km/h (2 Bft) SW 225 -5,9 C -4,6 C 11,1 km/h (2 Bft)
19.02.2019 03:30 -0,9 C -0,5 C 69 % 1022,7 hPa 0,0 l/m 10,1 km/h (2 Bft) SW 225 -5,9 C -4,5 C 9,7 km/h (2 Bft)
19.02.2019 03:28 -0,9 C -0,6 C 69 % 1022,7 hPa 0,0 l/m 10,1 km/h (2 Bft) S 180 -5,9 C -4,5 C 11,3 km/h (2 Bft)
19.02.2019 03:26 -0,9 C -0,6 C 69 % 1022,7 hPa 0,0 l/m 10,1 km/h (2 Bft) SW 225 -5,9 C -4,5 C 11,1 km/h (2 Bft)
19.02.2019 03:24 -0,7 C -0,6 C 69 % 1022,7 hPa 0,0 l/m 10,1 km/h (2 Bft) S 180 -5,7 C -4,3 C 11,3 km/h (2 Bft)
19.02.2019 03:22 -0,7 C -0,7 C 69 % 1022,7 hPa 0,0 l/m 9,9 km/h (2 Bft) S 180 -5,7 C -4,1 C 10,1 km/h (2 Bft)
19.02.2019 03:20 -0,7 C -0,6 C 69 % 1022,4 hPa 0,0 l/m 10,1 km/h (2 Bft) SW 225 -5,7 C -4,3 C 10,4 km/h (2 Bft)
19.02.2019 03:18 -0,7 C -0,7 C 69 % 1022,4 hPa 0,0 l/m 10,1 km/h (2 Bft) SW 225 -5,7 C -4,3 C 9,7 km/h (2 Bft)
19.02.2019 03:16 -0,7 C -0,7 C 69 % 1022,4 hPa 0,0 l/m 10,6 km/h (2 Bft) SW 225 -5,7 C -4,7 C 10,1 km/h (2 Bft)
19.02.2019 03:14 -0,7 C -0,7 C 69 % 1022,4 hPa 0,0 l/m 11,1 km/h (2 Bft) SW 225 -5,7 C -5,1 C 12,6 km/h (3 Bft)
19.02.2019 03:12 -0,7 C -0,6 C 68 % 1022,4 hPa 0,0 l/m 11,3 km/h (2 Bft) SW 225 -5,9 C -5,3 C 10,9 km/h (2 Bft)
19.02.2019 03:10 -0,7 C -0,6 C 68 % 1022,4 hPa 0,0 l/m 11,3 km/h (2 Bft) SW 225 -5,9 C -5,3 C 11,3 km/h (2 Bft)
19.02.2019 03:08 -0,7 C -0,6 C 68 % 1022,4 hPa 0,0 l/m 11,1 km/h (2 Bft) SW 225 -5,9 C -5,1 C 11,6 km/h (2 Bft)
19.02.2019 03:06 -0,7 C -0,5 C 68 % 1022,4 hPa 0,0 l/m 11,1 km/h (2 Bft) S-SW 202 -5,9 C -5,1 C 12,6 km/h (3 Bft)
19.02.2019 03:04 -0,7 C -0,3 C 68 % 1022,4 hPa 0,0 l/m 9,9 km/h (2 Bft) SW 225 -5,9 C -4,1 C 12,1 km/h (2 Bft)
19.02.2019 03:02 -0,7 C -0,3 C 68 % 1022,4 hPa 0,0 l/m 9,7 km/h (2 Bft) S-SW 202 -5,9 C -4,0 C 11,6 km/h (2 Bft)
19.02.2019 03:00 -0,7 C -0,3 C 68 % 1022,8 hPa 0,0 l/m 9,4 km/h (2 Bft) S 180 -5,9 C -3,7 C 12,6 km/h (3 Bft)
19.02.2019 02:58 -0,6 C -0,3 C 68 % 1022,8 hPa 0,0 l/m 9,7 km/h (2 Bft) SW 225 -5,8 C -3,9 C 10,1 km/h (2 Bft)
19.02.2019 02:56 -0,6 C -0,3 C 68 % 1022,8 hPa 0,0 l/m 9,9 km/h (2 Bft) SW 225 -5,8 C -4,0 C 10,9 km/h (2 Bft)
19.02.2019 02:54 -0,6 C -0,3 C 68 % 1022,8 hPa 0,0 l/m 10,1 km/h (2 Bft) SW 225 -5,8 C -4,2 C 10,4 km/h (2 Bft)
19.02.2019 02:52 -0,5 C -0,3 C 67 % 1022,8 hPa 0,0 l/m 10,4 km/h (2 Bft) S-SW 202 -5,9 C -4,3 C 8,9 km/h (2 Bft)
19.02.2019 02:50 -0,5 C -0,3 C 67 % 1022,8 hPa 0,0 l/m 10,6 km/h (2 Bft) SW 225 -5,9 C -4,5 C 11,3 km/h (2 Bft)
19.02.2019 02:48 -0,5 C -0,3 C 67 % 1022,8 hPa 0,0 l/m 11,1 km/h (2 Bft) SW 225 -5,9 C -4,9 C 11,3 km/h (2 Bft)
19.02.2019 02:46 -0,3 C -0,3 C 67 % 1022,8 hPa 0,0 l/m 11,3 km/h (2 Bft) SW 225 -5,7 C -4,8 C 12,8 km/h (3 Bft)
19.02.2019 02:44 -0,2 C -0,3 C 67 % 1022,8 hPa 0,0 l/m 11,3 km/h (2 Bft) S-SW 202 -5,6 C -4,7 C 11,6 km/h (2 Bft)
19.02.2019 02:42 -0,1 C -0,3 C 67 % 1022,8 hPa 0,0 l/m 11,6 km/h (2 Bft) SW 225 -5,5 C -4,8 C 11,8 km/h (2 Bft)
19.02.2019 02:40 -0,1 C -0,5 C 67 % 1022,7 hPa 0,0 l/m 12,1 km/h (2 Bft) S 180 -5,5 C -5,2 C 10,9 km/h (2 Bft)
19.02.2019 02:38 0,1 C -0,6 C 67 % 1022,7 hPa 0,0 l/m 12,3 km/h (3 Bft) SW 225 -5,3 C -5,1 C 15,4 km/h (3 Bft)
19.02.2019 02:36 0,1 C -0,7 C 67 % 1022,7 hPa 0,0 l/m 12,3 km/h (3 Bft) S-SW 202 -5,3 C -5,1 C 12,3 km/h (3 Bft)
19.02.2019 02:34 0,2 C -0,9 C 67 % 1022,7 hPa 0,0 l/m 12,6 km/h (3 Bft) SW 225 -5,2 C -5,2 C 12,6 km/h (3 Bft)
19.02.2019 02:32 0,2 C -0,9 C 67 % 1022,7 hPa 0,0 l/m 12,8 km/h (3 Bft) W-SW 247 -5,2 C -5,3 C 11,1 km/h (2 Bft)
19.02.2019 02:30 0,2 C -0,9 C 67 % 1022,7 hPa 0,0 l/m 13,3 km/h (3 Bft) W-SW 247 -5,2 C -5,7 C 13,3 km/h (3 Bft)
19.02.2019 02:28 0,2 C -0,9 C 67 % 1022,7 hPa 0,0 l/m 13,5 km/h (3 Bft) W-SW 247 -5,2 C -5,8 C 13,3 km/h (3 Bft)
19.02.2019 02:26 0,3 C -0,9 C 67 % 1022,7 hPa 0,0 l/m 13,8 km/h (3 Bft) SW 225 -5,1 C -5,9 C 15,0 km/h (3 Bft)
19.02.2019 02:24 0,4 C -0,9 C 67 % 1022,7 hPa 0,0 l/m 13,8 km/h (3 Bft) SW 225 -5,0 C -5,8 C 14,7 km/h (3 Bft)
19.02.2019 02:22 0,4 C -0,9 C 67 % 1022,7 hPa 0,0 l/m 13,5 km/h (3 Bft) S-SW 202 -5,0 C -5,6 C 12,8 km/h (3 Bft)
19.02.2019 02:20 0,4 C -0,9 C 67 % 1022,6 hPa 0,0 l/m 13,3 km/h (3 Bft) W-SW 247 -5,0 C -5,4 C 16,9 km/h (3 Bft)
19.02.2019 02:18 0,4 C -0,7 C 67 % 1022,6 hPa 0,0 l/m 13,3 km/h (3 Bft) W-SW 247 -5,0 C -5,4 C 14,2 km/h (3 Bft)
19.02.2019 02:16 0,5 C -0,7 C 67 % 1022,6 hPa 0,0 l/m 13,3 km/h (3 Bft) W-SW 247 -4,9 C -5,3 C 14,2 km/h (3 Bft)
19.02.2019 02:14 0,7 C -0,7 C 67 % 1022,6 hPa 0,0 l/m 13,3 km/h (3 Bft) SW 225 -4,7 C -5,1 C 17,6 km/h (3 Bft)
19.02.2019 02:12 0,5 C -0,7 C 67 % 1022,6 hPa 0,0 l/m 13,3 km/h (3 Bft) W-SW 247 -4,9 C -5,3 C 12,8 km/h (3 Bft)
19.02.2019 02:10 0,5 C -0,8 C 67 % 1022,6 hPa 0,0 l/m 13,5 km/h (3 Bft) S-SW 202 -4,9 C -5,4 C 13,8 km/h (3 Bft)
19.02.2019 02:08 0,5 C -0,6 C 66 % 1022,6 hPa 0,0 l/m 13,5 km/h (3 Bft) S-SW 202 -5,1 C -5,4 C 14,0 km/h (3 Bft)
19.02.2019 02:06 0,5 C -0,6 C 66 % 1022,6 hPa 0,0 l/m 13,8 km/h (3 Bft) W 270 -5,1 C -5,6 C 14,5 km/h (3 Bft)
19.02.2019 02:04 0,5 C -0,6 C 66 % 1022,6 hPa 0,0 l/m 14,0 km/h (3 Bft) S-SW 202 -5,1 C -5,8 C 13,5 km/h (3 Bft)
19.02.2019 02:02 0,5 C -0,6 C 66 % 1022,6 hPa 0,0 l/m 14,2 km/h (3 Bft) SW 225 -5,1 C -5,9 C 14,0 km/h (3 Bft)
19.02.2019 02:00 0,5 C -0,6 C 66 % 1022,6 hPa 0,0 l/m 14,5 km/h (3 Bft) S-SW 202 -5,1 C -6,1 C 15,4 km/h (3 Bft)
19.02.2019 01:58 0,5 C -0,6 C 66 % 1022,6 hPa 0,0 l/m 14,5 km/h (3 Bft) S 180 -5,1 C -6,1 C 14,7 km/h (3 Bft)
19.02.2019 01:56 0,7 C -0,6 C 66 % 1022,6 hPa 0,0 l/m 14,7 km/h (3 Bft) S-SW 202 -4,9 C -6,0 C 16,2 km/h (3 Bft)
19.02.2019 01:54 0,7 C -0,6 C 66 % 1022,6 hPa 0,0 l/m 15,0 km/h (3 Bft) S 180 -4,9 C -6,1 C 15,2 km/h (3 Bft)
19.02.2019 01:52 0,7 C -0,6 C 66 % 1022,6 hPa 0,0 l/m 15,0 km/h (3 Bft) SW 225 -4,9 C -6,1 C 16,7 km/h (3 Bft)
19.02.2019 01:50 0,8 C -0,6 C 66 % 1022,6 hPa 0,0 l/m 14,7 km/h (3 Bft) S-SW 202 -4,8 C -5,8 C 14,2 km/h (3 Bft)
19.02.2019 01:48 0,9 C -0,6 C 66 % 1022,6 hPa 0,0 l/m 14,5 km/h (3 Bft) SW 225 -4,7 C -5,6 C 15,4 km/h (3 Bft)
19.02.2019 01:46 0,9 C -0,5 C 66 % 1022,6 hPa 0,0 l/m 13,8 km/h (3 Bft) SW 225 -4,7 C -5,2 C 15,9 km/h (3 Bft)
19.02.2019 01:44 1,0 C -0,5 C 65 % 1022,6 hPa 0,0 l/m 13,0 km/h (3 Bft) S 180 -4,8 C -4,5 C 16,4 km/h (3 Bft)
19.02.2019 01:42 1,3 C -0,6 C 65 % 1022,6 hPa 0,0 l/m 12,1 km/h (2 Bft) S-SW 202 -4,5 C -3,6 C 15,2 km/h (3 Bft)
19.02.2019 01:40 1,3 C -0,6 C 65 % 1022,5 hPa 0,0 l/m 11,3 km/h (2 Bft) SW 225 -4,5 C -3,0 C 16,7 km/h (3 Bft)
19.02.2019 01:38 1,5 C -0,6 C 65 % 1022,5 hPa 0,0 l/m 10,9 km/h (2 Bft) SW 225 -4,3 C -2,5 C 11,6 km/h (2 Bft)
19.02.2019 01:36 1,5 C -0,6 C 65 % 1022,5 hPa 0,0 l/m 11,1 km/h (2 Bft) SW 225 -4,3 C -2,6 C 13,0 km/h (3 Bft)
19.02.2019 01:34 1,6 C -0,6 C 66 % 1022,5 hPa 0,0 l/m 11,3 km/h (2 Bft) SW 225 -4,1 C -2,7 C 11,1 km/h (2 Bft)
19.02.2019 01:32 1,5 C -0,6 C 66 % 1022,5 hPa 0,0 l/m 12,1 km/h (2 Bft) SW 225 -4,1 C -3,3 C 13,5 km/h (3 Bft)
19.02.2019 01:30 1,4 C -0,6 C 66 % 1022,5 hPa 0,0 l/m 13,0 km/h (3 Bft) SW 225 -4,2 C -4,1 C 11,3 km/h (2 Bft)
19.02.2019 01:28 1,4 C -0,6 C 66 % 1022,5 hPa 0,0 l/m 13,5 km/h (3 Bft) N-NO 22 -4,2 C -4,4 C 12,3 km/h (3 Bft)
19.02.2019 01:26 1,5 C -0,8 C 66 % 1022,5 hPa 0,0 l/m 14,2 km/h (3 Bft) SW 225 -4,1 C -4,7 C 13,3 km/h (3 Bft)
19.02.2019 01:24 1,5 C -0,8 C 66 % 1022,5 hPa 0,0 l/m 14,5 km/h (3 Bft) SW 225 -4,1 C -4,9 C 14,2 km/h (3 Bft)
19.02.2019 01:22 1,4 C -0,8 C 66 % 1022,5 hPa 0,0 l/m 14,2 km/h (3 Bft) SW 225 -4,2 C -4,8 C 17,9 km/h (3 Bft)
19.02.2019 01:20 1,3 C -0,8 C 66 % 1022,8 hPa 0,0 l/m 13,3 km/h (3 Bft) SW 225 -4,3 C -4,4 C 15,4 km/h (3 Bft)
19.02.2019 01:18 1,1 C -0,8 C 66 % 1022,8 hPa 0,0 l/m 13,0 km/h (3 Bft) SW 225 -4,5 C -4,4 C 15,2 km/h (3 Bft)
19.02.2019 01:16 1,1 C -0,8 C 66 % 1022,8 hPa 0,0 l/m 12,6 km/h (3 Bft) SW 225 -4,5 C -4,1 C 15,9 km/h (3 Bft)
19.02.2019 01:14 0,9 C -0,6 C 66 % 1022,8 hPa 0,0 l/m 12,6 km/h (3 Bft) SW 225 -4,7 C -4,4 C 14,7 km/h (3 Bft)
19.02.2019 01:12 0,8 C -0,6 C 66 % 1022,8 hPa 0,0 l/m 12,8 km/h (3 Bft) SW 225 -4,8 C -4,6 C 13,3 km/h (3 Bft)
19.02.2019 01:10 0,9 C -0,6 C 66 % 1022,8 hPa 0,0 l/m 13,0 km/h (3 Bft) S 180 -4,7 C -4,6 C 10,1 km/h (2 Bft)
19.02.2019 01:08 0,9 C -0,6 C 66 % 1022,8 hPa 0,0 l/m 13,0 km/h (3 Bft) S-SW 202 -4,7 C -4,6 C 15,9 km/h (3 Bft)
19.02.2019 01:06 0,5 C -0,6 C 66 % 1022,8 hPa 0,0 l/m 12,6 km/h (3 Bft) SW 225 -5,1 C -4,8 C 13,3 km/h (3 Bft)
19.02.2019 01:04 0,7 C -0,5 C 66 % 1022,8 hPa 0,0 l/m 12,1 km/h (2 Bft) W-SW 247 -4,9 C -4,3 C 14,0 km/h (3 Bft)
19.02.2019 01:02 0,7 C -0,5 C 66 % 1022,8 hPa 0,0 l/m 11,8 km/h (2 Bft) S 180 -4,9 C -4,1 C 13,8 km/h (3 Bft)
19.02.2019 01:00 0,8 C -0,5 C 66 % 1022,9 hPa 0,0 l/m 11,8 km/h (2 Bft) S-SW 202 -4,8 C -3,9 C 15,4 km/h (3 Bft)
19.02.2019 00:58 0,9 C -0,5 C 66 % 1022,9 hPa 0,0 l/m 11,3 km/h (2 Bft) SW 225 -4,7 C -3,5 C 11,3 km/h (2 Bft)
19.02.2019 00:56 1,0 C -0,5 C 65 % 1022,9 hPa 0,0 l/m 11,3 km/h (2 Bft) SW 225 -4,8 C -3,3 C 11,3 km/h (2 Bft)
19.02.2019 00:54 1,0 C -0,6 C 65 % 1022,9 hPa 0,0 l/m 11,6 km/h (2 Bft) W-SW 247 -4,8 C -3,6 C 11,1 km/h (2 Bft)
19.02.2019 00:52 1,0 C -0,6 C 65 % 1022,9 hPa 0,0 l/m 11,3 km/h (2 Bft) W-SW 247 -4,8 C -3,3 C 12,8 km/h (3 Bft)
19.02.2019 00:50 1,0 C -0,6 C 65 % 1022,9 hPa 0,0 l/m 10,9 km/h (2 Bft) SW 225 -4,8 C -3,0 C 14,2 km/h (3 Bft)
19.02.2019 00:48 1,0 C -0,5 C 65 % 1022,9 hPa 0,0 l/m 10,6 km/h (2 Bft) SW 225 -4,8 C -2,8 C 12,3 km/h (3 Bft)
19.02.2019 00:46 1,1 C -0,5 C 65 % 1022,9 hPa 0,0 l/m 10,6 km/h (2 Bft) SW 225 -4,7 C -2,7 C 12,1 km/h (2 Bft)
19.02.2019 00:44 1,1 C -0,5 C 65 % 1022,9 hPa 0,0 l/m 10,4 km/h (2 Bft) W-SW 247 -4,7 C -2,6 C 11,1 km/h (2 Bft)
19.02.2019 00:42 1,3 C -0,5 C 65 % 1022,9 hPa 0,0 l/m 10,6 km/h (2 Bft) SW 225 -4,5 C -2,5 C 10,6 km/h (2 Bft)
19.02.2019 00:40 1,4 C -0,5 C 65 % 1022,8 hPa 0,0 l/m 11,3 km/h (2 Bft) SW 225 -4,4 C -2,9 C 11,6 km/h (2 Bft)
19.02.2019 00:38 1,4 C -0,5 C 65 % 1022,8 hPa 0,0 l/m 11,6 km/h (2 Bft) SW 225 -4,4 C -3,1 C 10,6 km/h (2 Bft)
19.02.2019 00:36 1,5 C -0,5 C 65 % 1022,8 hPa 0,0 l/m 12,1 km/h (2 Bft) W-SW 247 -4,3 C -3,3 C 10,9 km/h (2 Bft)
19.02.2019 00:34 1,5 C -0,6 C 65 % 1022,8 hPa 0,0 l/m 12,8 km/h (3 Bft) SW 225 -4,3 C -3,8 C 12,1 km/h (2 Bft)
19.02.2019 00:32 1,6 C -0,6 C 65 % 1022,8 hPa 0,0 l/m 13,3 km/h (3 Bft) SW 225 -4,3 C -4,0 C 13,8 km/h (3 Bft)
19.02.2019 00:30 1,6 C -0,6 C 65 % 1022,8 hPa 0,0 l/m 13,8 km/h (3 Bft) SW 225 -4,3 C -4,3 C 15,0 km/h (3 Bft)
19.02.2019 00:28 1,8 C -0,6 C 65 % 1022,8 hPa 0,0 l/m 13,8 km/h (3 Bft) SW 225 -4,1 C -4,1 C 13,0 km/h (3 Bft)
19.02.2019 00:26 1,8 C -0,5 C 65 % 1022,8 hPa 0,0 l/m 13,8 km/h (3 Bft) SW 225 -4,1 C -4,1 C 13,3 km/h (3 Bft)
19.02.2019 00:24 1,9 C -0,5 C 65 % 1022,8 hPa 0,0 l/m 14,7 km/h (3 Bft) SW 225 -4,0 C -4,5 C 15,9 km/h (3 Bft)
19.02.2019 00:22 1,9 C -0,5 C 65 % 1022,8 hPa 0,0 l/m 14,7 km/h (3 Bft) SW 225 -4,0 C -4,5 C 15,0 km/h (3 Bft)
19.02.2019 00:20 1,9 C -0,5 C 65 % 1022,7 hPa 0,0 l/m 14,7 km/h (3 Bft) SW 225 -4,0 C -4,5 C 15,9 km/h (3 Bft)
19.02.2019 00:18 1,9 C -0,5 C 65 % 1022,7 hPa 0,0 l/m 15,4 km/h (3 Bft) W-SW 247 -4,0 C -4,9 C 12,8 km/h (3 Bft)
19.02.2019 00:16 1,9 C -0,5 C 64 % 1022,7 hPa 0,0 l/m 15,9 km/h (3 Bft) SW 225 -4,2 C -5,2 C 25,6 km/h (4 Bft)
19.02.2019 00:14 1,8 C -0,5 C 64 % 1022,7 hPa 0,0 l/m 15,9 km/h (3 Bft) SW 225 -4,3 C -5,3 C 17,1 km/h (3 Bft)
19.02.2019 00:12 1,9 C -0,5 C 64 % 1022,7 hPa 0,0 l/m 15,7 km/h (3 Bft) W-SW 247 -4,2 C -5,1 C 17,4 km/h (3 Bft)
19.02.2019 00:10 2,0 C -0,5 C 63 % 1022,7 hPa 0,0 l/m 15,9 km/h (3 Bft) S-SW 202 -4,3 C -5,1 C 9,9 km/h (2 Bft)
19.02.2019 00:08 2,0 C -0,5 C 63 % 1022,7 hPa 0,0 l/m 16,4 km/h (3 Bft) W-SW 247 -4,3 C -5,3 C 21,0 km/h (4 Bft)
19.02.2019 00:06 2,0 C -0,5 C 63 % 1022,7 hPa 0,0 l/m 16,4 km/h (3 Bft) S-SW 202 -4,3 C -5,3 C 20,5 km/h (4 Bft)
19.02.2019 00:04 2,1 C -0,5 C 63 % 1022,7 hPa 0,0 l/m 15,7 km/h (3 Bft) SW 225 -4,2 C -4,8 C 12,1 km/h (2 Bft)
19.02.2019 00:02 2,1 C -0,5 C 63 % 1022,7 hPa 0,0 l/m 15,7 km/h (3 Bft) SW 225 -4,2 C -4,8 C 12,1 km/h (2 Bft)
19.02.2019 00:00 2,0 C -0,5 C 63 % 1022,9 hPa 0,0 l/m 15,7 km/h (3 Bft) SW 225 -4,3 C -4,9 C 19,8 km/h (3 Bft)
18.02.2019 23:58 2,0 C -0,5 C 63 % 1022,9 hPa 0,0 l/m 15,2 km/h (3 Bft) SW 225 -4,3 C -4,7 C 18,6 km/h (3 Bft)
18.02.2019 23:56 2,1 C -0,5 C 64 % 1022,9 hPa 0,0 l/m 14,5 km/h (3 Bft) W-SW 247 -4,0 C -4,2 C 19,6 km/h (3 Bft)
18.02.2019 23:54 2,1 C -0,5 C 64 % 1022,9 hPa 0,0 l/m 14,2 km/h (3 Bft) SW 225 -4,0 C -4,0 C 17,1 km/h (3 Bft)
18.02.2019 23:52 2,0 C -0,5 C 64 % 1022,9 hPa 0,0 l/m 13,5 km/h (3 Bft) SW 225 -4,1 C -3,7 C 16,9 km/h (3 Bft)
18.02.2019 23:50 1,9 C -0,5 C 65 % 1022,9 hPa 0,0 l/m 14,0 km/h (3 Bft) SW 225 -4,0 C -4,1 C 15,4 km/h (3 Bft)
18.02.2019 23:48 2,0 C -0,5 C 64 % 1022,9 hPa 0,0 l/m 13,3 km/h (3 Bft) S 180 -4,1 C -3,5 C 18,1 km/h (3 Bft)
18.02.2019 23:46 1,9 C -0,5 C 65 % 1022,9 hPa 0,0 l/m 13,3 km/h (3 Bft) SW 225 -4,0 C -3,7 C 15,7 km/h (3 Bft)
18.02.2019 23:44 1,9 C -0,5 C 64 % 1022,9 hPa 0,0 l/m 13,3 km/h (3 Bft) SW 225 -4,2 C -3,7 C 12,8 km/h (3 Bft)
18.02.2019 23:42 1,9 C -0,5 C 64 % 1022,9 hPa 0,0 l/m 14,2 km/h (3 Bft) S-SW 202 -4,2 C -4,2 C 15,7 km/h (3 Bft)
18.02.2019 23:40 1,9 C -0,5 C 64 % 1022,9 hPa 0,0 l/m 14,7 km/h (3 Bft) SW 225 -4,2 C -4,5 C 18,8 km/h (3 Bft)
18.02.2019 23:38 2,0 C -0,5 C 64 % 1022,9 hPa 0,0 l/m 15,0 km/h (3 Bft) N 360 -4,1 C -4,6 C 11,8 km/h (2 Bft)
18.02.2019 23:36 2,1 C -0,5 C 64 % 1022,9 hPa 0,0 l/m 15,9 km/h (3 Bft) W-SW 247 -4,0 C -4,9 C 14,2 km/h (3 Bft)
18.02.2019 23:34 2,1 C -0,5 C 64 % 1022,9 hPa 0,0 l/m 16,2 km/h (3 Bft) W-SW 247 -4,0 C -5,1 C 15,9 km/h (3 Bft)
18.02.2019 23:32 2,0 C -0,5 C 64 % 1022,9 hPa 0,0 l/m 15,9 km/h (3 Bft) SW 225 -4,1 C -5,1 C 15,9 km/h (3 Bft)
18.02.2019 23:30 2,0 C -0,5 C 64 % 1022,9 hPa 0,0 l/m 15,4 km/h (3 Bft) W-SW 247 -4,1 C -4,8 C 15,9 km/h (3 Bft)
18.02.2019 23:28 1,9 C -0,5 C 65 % 1022,9 hPa 0,0 l/m 14,5 km/h (3 Bft) SW 225 -4,0 C -4,4 C 18,6 km/h (3 Bft)
18.02.2019 23:26 1,9 C -0,5 C 65 % 1022,9 hPa 0,0 l/m 14,2 km/h (3 Bft) SW 225 -4,0 C -4,2 C 15,4 km/h (3 Bft)
18.02.2019 23:24 1,8 C -0,5 C 65 % 1022,9 hPa 0,0 l/m 14,7 km/h (3 Bft) SW 225 -4,1 C -4,6 C 15,2 km/h (3 Bft)
18.02.2019 23:22 1,9 C -0,5 C 65 % 1022,9 hPa 0,0 l/m 15,4 km/h (3 Bft) SW 225 -4,0 C -4,9 C 15,4 km/h (3 Bft)
18.02.2019 23:20 1,9 C -0,5 C 65 % 1023,1 hPa 0,0 l/m 16,2 km/h (3 Bft) SW 225 -4,0 C -5,3 C 14,7 km/h (3 Bft)
18.02.2019 23:18 1,9 C -0,5 C 65 % 1023,1 hPa 0,0 l/m 17,6 km/h (3 Bft) W-SW 247 -4,0 C -6,1 C 19,6 km/h (3 Bft)
18.02.2019 23:16 1,9 C -0,5 C 65 % 1023,1 hPa 0,0 l/m 18,1 km/h (3 Bft) W-SW 247 -4,0 C -6,3 C 17,6 km/h (3 Bft)
18.02.2019 23:14 1,9 C -0,5 C 64 % 1023,1 hPa 0,0 l/m 17,1 km/h (3 Bft) SW 225 -4,2 C -5,8 C 19,6 km/h (3 Bft)
18.02.2019 23:12 1,9 C -0,5 C 64 % 1023,1 hPa 0,0 l/m 16,4 km/h (3 Bft) W-SW 247 -4,2 C -5,4 C 17,4 km/h (3 Bft)
18.02.2019 23:10 1,9 C -0,5 C 64 % 1023,1 hPa 0,0 l/m 16,2 km/h (3 Bft) W-SW 247 -4,2 C -5,3 C 22,2 km/h (4 Bft)
18.02.2019 23:08 1,9 C -0,5 C 64 % 1023,1 hPa 0,0 l/m 15,0 km/h (3 Bft) W-SW 247 -4,2 C -4,7 C 22,0 km/h (4 Bft)
18.02.2019 23:06 1,9 C -0,4 C 64 % 1023,1 hPa 0,0 l/m 14,0 km/h (3 Bft) SW 225 -4,2 C -4,1 C 17,9 km/h (3 Bft)
18.02.2019 23:04 1,9 C -0,4 C 64 % 1023,1 hPa 0,0 l/m 14,0 km/h (3 Bft) S 180 -4,2 C -4,1 C 12,8 km/h (3 Bft)
18.02.2019 23:02 1,9 C -0,4 C 64 % 1023,1 hPa 0,0 l/m 14,0 km/h (3 Bft) SW 225 -4,2 C -4,1 C 15,9 km/h (3 Bft)
18.02.2019 23:00 1,9 C -0,4 C 64 % 1023,1 hPa 0,0 l/m 13,0 km/h (3 Bft) W-SW 247 -4,2 C -3,5 C 15,9 km/h (3 Bft)
18.02.2019 22:58 1,9 C -0,4 C 63 % 1023,1 hPa 0,0 l/m 13,3 km/h (3 Bft) W-SW 247 -4,4 C -3,7 C 15,4 km/h (3 Bft)
18.02.2019 22:56 1,9 C -0,4 C 63 % 1023,1 hPa 0,0 l/m 13,5 km/h (3 Bft) SW 225 -4,4 C -3,8 C 15,9 km/h (3 Bft)
18.02.2019 22:54 1,9 C -0,4 C 63 % 1023,1 hPa 0,0 l/m 13,3 km/h (3 Bft) S-SW 202 -4,4 C -3,7 C 16,2 km/h (3 Bft)
18.02.2019 22:52 2,0 C -0,4 C 63 % 1023,1 hPa 0,0 l/m 13,0 km/h (3 Bft) SW 225 -4,3 C -3,4 C 17,9 km/h (3 Bft)
18.02.2019 22:50 2,1 C -0,4 C 63 % 1023,1 hPa 0,0 l/m 12,8 km/h (3 Bft) S-SO 157 -4,2 C -3,1 C 8,4 km/h (2 Bft)
18.02.2019 22:48 2,0 C -0,4 C 63 % 1023,1 hPa 0,0 l/m 12,6 km/h (3 Bft) W-SW 247 -4,3 C -3,1 C 18,1 km/h (3 Bft)
18.02.2019 22:46 2,1 C -0,4 C 63 % 1023,1 hPa 0,0 l/m 12,3 km/h (3 Bft) W-SW 247 -4,2 C -2,8 C 19,6 km/h (3 Bft)
18.02.2019 22:44 2,1 C -0,4 C 63 % 1023,1 hPa 0,0 l/m 11,8 km/h (2 Bft) S 180 -4,2 C -2,4 C 9,9 km/h (2 Bft)
18.02.2019 22:42 2,1 C -0,4 C 63 % 1023,1 hPa 0,0 l/m 11,3 km/h (2 Bft) W-SW 247 -4,2 C -2,1 C 14,2 km/h (3 Bft)
18.02.2019 22:40 2,1 C -0,4 C 63 % 1023,1 hPa 0,0 l/m 10,9 km/h (2 Bft) S-SW 202 -4,2 C -1,8 C 10,9 km/h (2 Bft)
18.02.2019 22:38 2,2 C -0,4 C 63 % 1023,1 hPa 0,0 l/m 10,9 km/h (2 Bft) S 180 -4,1 C -1,7 C 8,7 km/h (2 Bft)
18.02.2019 22:36 2,2 C -0,3 C 63 % 1023,1 hPa 0,0 l/m 10,6 km/h (2 Bft) SW 225 -4,1 C -1,5 C 15,7 km/h (3 Bft)
18.02.2019 22:34 2,1 C -0,4 C 63 % 1023,1 hPa 0,0 l/m 10,4 km/h (2 Bft) W-SW 247 -4,2 C -1,4 C 14,0 km/h (3 Bft)
18.02.2019 22:32 2,1 C -0,3 C 63 % 1023,1 hPa 0,0 l/m 9,9 km/h (2 Bft) S 180 -4,2 C -1,1 C 11,1 km/h (2 Bft)
18.02.2019 22:30 2,1 C -0,3 C 63 % 1023,1 hPa 0,0 l/m 9,9 km/h (2 Bft) S 180 -4,2 C -1,1 C 12,3 km/h (3 Bft)
18.02.2019 22:28 2,2 C -0,3 C 63 % 1023,1 hPa 0,0 l/m 10,1 km/h (2 Bft) S-SW 202 -4,1 C -1,1 C 9,7 km/h (2 Bft)
18.02.2019 22:26 2,2 C -0,3 C 63 % 1023,1 hPa 0,0 l/m 10,9 km/h (2 Bft) SW 225 -4,1 C -1,7 C 12,6 km/h (3 Bft)
18.02.2019 22:24 2,3 C -0,3 C 63 % 1023,1 hPa 0,0 l/m 10,9 km/h (2 Bft) SW 225 -4,0 C -1,6 C 11,8 km/h (2 Bft)
18.02.2019 22:22 2,6 C -0,3 C 63 % 1023,1 hPa 0,0 l/m 10,9 km/h (2 Bft) S-SW 202 -3,7 C -1,2 C 11,1 km/h (2 Bft)
18.02.2019 22:20 2,6 C -0,3 C 63 % 1023,2 hPa 0,0 l/m 11,1 km/h (2 Bft) SW 225 -3,7 C -1,4 C 10,9 km/h (2 Bft)
18.02.2019 22:18 2,6 C -0,3 C 63 % 1023,2 hPa 0,0 l/m 11,6 km/h (2 Bft) W-SW 247 -3,7 C -1,7 C 17,9 km/h (3 Bft)
18.02.2019 22:16 2,6 C -0,3 C 63 % 1023,2 hPa 0,0 l/m 10,6 km/h (2 Bft) SW 225 -3,7 C -1,0 C 12,8 km/h (3 Bft)
18.02.2019 22:14 2,7 C -0,3 C 63 % 1023,2 hPa 0,0 l/m 10,1 km/h (2 Bft) SW 225 -3,6 C -0,5 C 8,7 km/h (2 Bft)
18.02.2019 22:12 2,7 C -0,3 C 63 % 1023,2 hPa 0,0 l/m 10,4 km/h (2 Bft) SW 225 -3,6 C -0,8 C 15,2 km/h (3 Bft)
18.02.2019 22:10 2,8 C -0,3 C 63 % 1023,2 hPa 0,0 l/m 10,4 km/h (2 Bft) SW 225 -3,5 C -0,7 C 12,8 km/h (3 Bft)
18.02.2019 22:08 2,9 C -0,3 C 63 % 1023,2 hPa 0,0 l/m 9,9 km/h (2 Bft) SW 225 -3,4 C -0,2 C 13,8 km/h (3 Bft)
18.02.2019 22:06 2,8 C -0,3 C 63 % 1023,2 hPa 0,0 l/m 10,1 km/h (2 Bft) SW 225 -3,5 C -0,4 C 9,9 km/h (2 Bft)
18.02.2019 22:04 2,8 C -0,3 C 63 % 1023,2 hPa 0,0 l/m 10,9 km/h (2 Bft) W-SW 247 -3,5 C -1,0 C 11,3 km/h (2 Bft)
18.02.2019 22:02 2,9 C -0,3 C 63 % 1023,2 hPa 0,0 l/m 10,9 km/h (2 Bft) SW 225 -3,4 C -0,9 C 11,3 km/h (2 Bft)
18.02.2019 22:00 2,9 C -0,3 C 63 % 1023,1 hPa 0,0 l/m 10,6 km/h (2 Bft) S-SW 202 -3,4 C -0,7 C 6,5 km/h (2 Bft)
18.02.2019 21:58 3,1 C -0,3 C 62 % 1023,1 hPa 0,0 l/m 11,1 km/h (2 Bft) SO 135 -3,5 C -0,8 C 9,9 km/h (2 Bft)
18.02.2019 21:56 3,1 C -0,3 C 62 % 1023,1 hPa 0,0 l/m 10,9 km/h (2 Bft) SW 225 -3,5 C -0,7 C 14,7 km/h (3 Bft)
18.02.2019 21:54 3,2 C -0,3 C 62 % 1023,1 hPa 0,0 l/m 10,9 km/h (2 Bft) SW 225 -3,4 C -0,6 C 10,6 km/h (2 Bft)
18.02.2019 21:52 3,2 C -0,3 C 62 % 1023,1 hPa 0,0 l/m 10,9 km/h (2 Bft) SW 225 -3,4 C -0,6 C 12,6 km/h (3 Bft)
18.02.2019 21:50 3,1 C -0,3 C 62 % 1023,1 hPa 0,0 l/m 10,6 km/h (2 Bft) SW 225 -3,5 C -0,5 C 10,6 km/h (2 Bft)
18.02.2019 21:48 3,1 C -0,3 C 62 % 1023,1 hPa 0,0 l/m 10,6 km/h (2 Bft) SW 225 -3,5 C -0,5 C 8,7 km/h (2 Bft)
18.02.2019 21:46 3,1 C -0,3 C 62 % 1023,1 hPa 0,0 l/m 10,9 km/h (2 Bft) W-SW 247 -3,5 C -0,7 C 13,0 km/h (3 Bft)
18.02.2019 21:44 3,1 C -0,3 C 62 % 1023,1 hPa 0,0 l/m 10,9 km/h (2 Bft) W-SW 247 -3,5 C -0,7 C 15,2 km/h (3 Bft)
18.02.2019 21:42 3,1 C -0,3 C 62 % 1023,1 hPa 0,0 l/m 10,4 km/h (2 Bft) W-SW 247 -3,5 C -0,3 C 11,1 km/h (2 Bft)
18.02.2019 21:40 3,1 C -0,3 C 62 % 1023,1 hPa 0,0 l/m 11,3 km/h (2 Bft) W-SW 247 -3,5 C -1,0 C 13,8 km/h (3 Bft)
18.02.2019 21:38 3,2 C -0,3 C 62 % 1023,1 hPa 0,0 l/m 11,6 km/h (2 Bft) SW 225 -3,4 C -1,1 C 11,1 km/h (2 Bft)
18.02.2019 21:36 3,2 C -0,3 C 62 % 1023,1 hPa 0,0 l/m 11,8 km/h (2 Bft) SW 225 -3,4 C -1,2 C 14,7 km/h (3 Bft)
18.02.2019 21:34 3,2 C -0,3 C 62 % 1023,1 hPa 0,0 l/m 12,1 km/h (2 Bft) SW 225 -3,4 C -1,4 C 15,7 km/h (3 Bft)
18.02.2019 21:32 3,2 C -0,3 C 62 % 1023,1 hPa 0,0 l/m 11,8 km/h (2 Bft) SW 225 -3,4 C -1,2 C 10,4 km/h (2 Bft)
18.02.2019 21:30 3,3 C -0,3 C 62 % 1023,1 hPa 0,0 l/m 11,6 km/h (2 Bft) W-SW 247 -3,3 C -0,9 C 14,7 km/h (3 Bft)
18.02.2019 21:28 3,3 C -0,2 C 63 % 1023,1 hPa 0,0 l/m 10,9 km/h (2 Bft) SW 225 -3,1 C -0,5 C 15,0 km/h (3 Bft)
18.02.2019 21:26 3,3 C -0,2 C 63 % 1023,1 hPa 0,0 l/m 10,6 km/h (2 Bft) S 180 -3,1 C -0,2 C 12,6 km/h (3 Bft)
18.02.2019 21:24 3,3 C -0,2 C 63 % 1023,1 hPa 0,0 l/m 9,7 km/h (2 Bft) SW 225 -3,1 C 0,4 C 13,5 km/h (3 Bft)
18.02.2019 21:22 3,3 C -0,2 C 63 % 1023,1 hPa 0,0 l/m 9,7 km/h (2 Bft) S 180 -3,1 C 0,4 C 14,5 km/h (3 Bft)
18.02.2019 21:20 3,3 C -0,2 C 63 % 1023,1 hPa 0,0 l/m 9,2 km/h (2 Bft) S-SW 202 -3,1 C 0,8 C 11,6 km/h (2 Bft)
18.02.2019 21:18 3,3 C -0,2 C 63 % 1023,1 hPa 0,0 l/m 8,9 km/h (2 Bft) S 180 -3,1 C 1,1 C 8,9 km/h (2 Bft)
18.02.2019 21:16 3,3 C -0,2 C 63 % 1023,1 hPa 0,0 l/m 9,2 km/h (2 Bft) S-SW 202 -3,1 C 0,8 C 6,5 km/h (2 Bft)
18.02.2019 21:14 3,3 C -0,2 C 63 % 1023,1 hPa 0,0 l/m 10,1 km/h (2 Bft) W-SW 247 -3,1 C 0,1 C 15,7 km/h (3 Bft)
18.02.2019 21:12 3,1 C -0,2 C 63 % 1023,1 hPa 0,0 l/m 9,7 km/h (2 Bft) S-SO 157 -3,2 C 0,2 C 6,8 km/h (2 Bft)
18.02.2019 21:10 3,2 C -0,2 C 63 % 1023,1 hPa 0,0 l/m 10,4 km/h (2 Bft) W 270 -3,1 C -0,2 C 9,7 km/h (2 Bft)
18.02.2019 21:08 3,3 C -0,2 C 63 % 1023,1 hPa 0,0 l/m 11,3 km/h (2 Bft) SW 225 -3,1 C -0,7 C 10,6 km/h (2 Bft)
18.02.2019 21:06 3,3 C -0,2 C 63 % 1023,1 hPa 0,0 l/m 11,1 km/h (2 Bft) SW 225 -3,1 C -0,6 C 13,5 km/h (3 Bft)
18.02.2019 21:04 3,6 C -0,2 C 63 % 1023,1 hPa 0,0 l/m 10,4 km/h (2 Bft) S-SW 202 -2,8 C 0,2 C 13,8 km/h (3 Bft)
18.02.2019 21:02 3,6 C -0,2 C 63 % 1023,1 hPa 0,0 l/m 9,9 km/h (2 Bft) W-SW 247 -2,8 C 0,6 C 10,1 km/h (2 Bft)
18.02.2019 21:00 3,6 C -0,2 C 63 % 1022,9 hPa 0,0 l/m 9,7 km/h (2 Bft) S-SW 202 -2,8 C 0,8 C 12,8 km/h (3 Bft)
18.02.2019 20:58 3,4 C -0,2 C 63 % 1022,9 hPa 0,0 l/m 9,7 km/h (2 Bft) SW 225 -3,0 C 0,5 C 17,1 km/h (3 Bft)
18.02.2019 20:56 3,6 C -0,2 C 63 % 1022,9 hPa 0,0 l/m 8,9 km/h (2 Bft) S 180 -2,8 C 1,4 C 7,2 km/h (2 Bft)
18.02.2019 20:54 3,7 C -0,2 C 63 % 1022,9 hPa 0,0 l/m 10,1 km/h (2 Bft) S 180 -2,7 C 0,6 C 9,7 km/h (2 Bft)
18.02.2019 20:52 3,7 C -0,2 C 63 % 1022,9 hPa 0,0 l/m 10,1 km/h (2 Bft) W-SW 247 -2,7 C 0,6 C 13,0 km/h (3 Bft)
18.02.2019 20:50 3,7 C -0,2 C 63 % 1022,9 hPa 0,0 l/m 9,7 km/h (2 Bft) W-SW 247 -2,7 C 0,9 C 10,4 km/h (2 Bft)
18.02.2019 20:48 3,6 C -0,2 C 63 % 1022,9 hPa 0,0 l/m 8,9 km/h (2 Bft) SW 225 -2,8 C 1,4 C 11,6 km/h (2 Bft)
18.02.2019 20:46 3,6 C -0,2 C 64 % 1022,9 hPa 0,0 l/m 9,4 km/h (2 Bft) S-SW 202 -2,6 C 1,0 C 11,8 km/h (2 Bft)
18.02.2019 20:44 3,7 C -0,2 C 64 % 1022,9 hPa 0,0 l/m 9,9 km/h (2 Bft) W-SW 247 -2,5 C 0,7 C 9,7 km/h (2 Bft)
18.02.2019 20:42 3,4 C -0,2 C 64 % 1022,9 hPa 0,0 l/m 9,7 km/h (2 Bft) W-SW 247 -2,7 C 0,5 C 9,9 km/h (2 Bft)
18.02.2019 20:40 3,4 C -0,2 C 64 % 1023,2 hPa 0,0 l/m 9,2 km/h (2 Bft) S 180 -2,7 C 0,9 C 10,4 km/h (2 Bft)
18.02.2019 20:38 3,4 C -0,2 C 64 % 1023,2 hPa 0,0 l/m 10,1 km/h (2 Bft) S 180 -2,7 C 0,2 C 7,5 km/h (2 Bft)
18.02.2019 20:36 3,4 C -0,2 C 64 % 1023,2 hPa 0,0 l/m 10,1 km/h (2 Bft) SW 225 -2,7 C 0,2 C 16,2 km/h (3 Bft)
18.02.2019 20:34 3,1 C -0,2 C 65 % 1023,2 hPa 0,0 l/m 9,7 km/h (2 Bft) S 180 -2,8 C 0,2 C 13,5 km/h (3 Bft)
18.02.2019 20:32 3,1 C -0,2 C 65 % 1023,2 hPa 0,0 l/m 9,4 km/h (2 Bft) SW 225 -2,8 C 0,4 C 8,7 km/h (2 Bft)
18.02.2019 20:30 3,1 C -0,2 C 65 % 1023,2 hPa 0,0 l/m 9,9 km/h (2 Bft) S 180 -2,8 C 0,0 C 8,2 km/h (2 Bft)
18.02.2019 20:28 3,2 C -0,2 C 65 % 1023,2 hPa 0,0 l/m 10,1 km/h (2 Bft) W-SW 247 -2,7 C 0,0 C 14,5 km/h (3 Bft)
18.02.2019 20:26 3,2 C -0,2 C 65 % 1023,2 hPa 0,0 l/m 10,1 km/h (2 Bft) S 180 -2,7 C 0,0 C 13,0 km/h (3 Bft)
18.02.2019 20:24 3,3 C -0,2 C 65 % 1023,2 hPa 0,0 l/m 10,1 km/h (2 Bft) SW 225 -2,6 C 0,1 C 11,3 km/h (2 Bft)
18.02.2019 20:22 3,6 C -0,2 C 65 % 1023,2 hPa 0,0 l/m 10,9 km/h (2 Bft) S-SW 202 -2,4 C -0,1 C 10,1 km/h (2 Bft)
18.02.2019 20:20 3,6 C -0,2 C 65 % 1023,4 hPa 0,0 l/m 11,6 km/h (2 Bft) W-SW 247 -2,4 C -0,6 C 12,8 km/h (3 Bft)
18.02.2019 20:18 3,7 C -0,2 C 65 % 1023,4 hPa 0,0 l/m 11,1 km/h (2 Bft) S-SW 202 -2,3 C -0,1 C 8,9 km/h (2 Bft)
18.02.2019 20:16 3,8 C -0,2 C 65 % 1023,4 hPa 0,0 l/m 12,1 km/h (2 Bft) SW 225 -2,2 C -0,7 C 14,0 km/h (3 Bft)
18.02.2019 20:14 3,9 C -0,2 C 65 % 1023,4 hPa 0,0 l/m 12,1 km/h (2 Bft) S 180 -2,1 C -0,6 C 10,9 km/h (2 Bft)
18.02.2019 20:12 4,0 C -0,2 C 65 % 1023,4 hPa 0,0 l/m 12,1 km/h (2 Bft) SW 225 -2,0 C -0,5 C 13,8 km/h (3 Bft)
18.02.2019 20:10 3,9 C -0,2 C 65 % 1023,4 hPa 0,0 l/m 12,6 km/h (3 Bft) SW 225 -2,1 C -0,9 C 17,9 km/h (3 Bft)
18.02.2019 20:08 3,9 C -0,2 C 66 % 1023,4 hPa 0,0 l/m 12,3 km/h (3 Bft) SW 225 -1,9 C -0,7 C 7,7 km/h (2 Bft)
18.02.2019 20:06 3,7 C -0,2 C 66 % 1023,4 hPa 0,0 l/m 13,3 km/h (3 Bft) SW 225 -2,0 C -1,5 C 16,2 km/h (3 Bft)
18.02.2019 20:04 3,6 C -0,2 C 66 % 1023,4 hPa 0,0 l/m 14,2 km/h (3 Bft) W-SW 247 -2,1 C -2,2 C 14,2 km/h (3 Bft)
18.02.2019 20:02 3,7 C -0,2 C 67 % 1023,4 hPa 0,0 l/m 14,7 km/h (3 Bft) SW 225 -1,8 C -2,3 C 16,2 km/h (3 Bft)
18.02.2019 20:00 3,4 C -0,2 C 67 % 1023,3 hPa 0,0 l/m 14,2 km/h (3 Bft) SW 225 -2,1 C -2,4 C 16,7 km/h (3 Bft)
18.02.2019 19:58 3,4 C -0,2 C 67 % 1023,3 hPa 0,0 l/m 13,0 km/h (3 Bft) SW 225 -2,1 C -1,7 C 13,5 km/h (3 Bft)
18.02.2019 19:56 3,4 C -0,2 C 67 % 1023,3 hPa 0,0 l/m 11,6 km/h (2 Bft) W-SW 247 -2,1 C -0,8 C 15,2 km/h (3 Bft)
18.02.2019 19:54 3,4 C -0,2 C 67 % 1023,3 hPa 0,0 l/m 9,7 km/h (2 Bft) W-SW 247 -2,1 C 0,5 C 18,6 km/h (3 Bft)
18.02.2019 19:52 3,3 C -0,2 C 66 % 1023,3 hPa 0,0 l/m 8,2 km/h (2 Bft) SW 225 -2,4 C 1,6 C 15,7 km/h (3 Bft)
18.02.2019 19:50 3,4 C -0,2 C 66 % 1023,3 hPa 0,0 l/m 8,0 km/h (2 Bft) SW 225 -2,3 C 1,9 C 14,5 km/h (3 Bft)
18.02.2019 19:48 3,4 C -0,2 C 66 % 1023,3 hPa 0,0 l/m 7,5 km/h (2 Bft) SW 225 -2,3 C 2,4 C 7,5 km/h (2 Bft)
18.02.2019 19:46 3,3 C -0,2 C 66 % 1023,3 hPa 0,0 l/m 7,5 km/h (2 Bft) SW 225 -2,4 C 2,3 C 9,2 km/h (2 Bft)
18.02.2019 19:44 3,4 C -0,2 C 67 % 1023,3 hPa 0,0 l/m 7,7 km/h (2 Bft) SW 225 -2,1 C 2,2 C 9,7 km/h (2 Bft)
18.02.2019 19:42 3,3 C -0,2 C 67 % 1023,3 hPa 0,0 l/m 7,7 km/h (2 Bft) W-SW 247 -2,2 C 2,1 C 11,3 km/h (2 Bft)
18.02.2019 19:40 3,3 C -0,2 C 67 % 1023,6 hPa 0,0 l/m 7,2 km/h (2 Bft) W-SW 247 -2,2 C 2,5 C 12,6 km/h (3 Bft)
18.02.2019 19:38 3,3 C -0,2 C 67 % 1023,6 hPa 0,0 l/m 8,0 km/h (2 Bft) W-SW 247 -2,2 C 1,8 C 5,1 km/h (1 Bft)
18.02.2019 19:36 3,2 C -0,2 C 67 % 1023,6 hPa 0,0 l/m 8,2 km/h (2 Bft) SW 225 -2,3 C 1,5 C 8,2 km/h (2 Bft)
18.02.2019 19:34 3,1 C -0,2 C 67 % 1023,6 hPa 0,0 l/m 9,2 km/h (2 Bft) W-SW 247 -2,4 C 0,6 C 6,0 km/h (2 Bft)
18.02.2019 19:32 3,1 C -0,3 C 67 % 1023,6 hPa 0,0 l/m 9,7 km/h (2 Bft) W-SW 247 -2,4 C 0,2 C 9,4 km/h (2 Bft)
18.02.2019 19:30 3,1 C -0,3 C 67 % 1023,6 hPa 0,0 l/m 8,9 km/h (2 Bft) S-SW 202 -2,4 C 0,8 C 9,7 km/h (2 Bft)
18.02.2019 19:28 3,1 C -0,2 C 67 % 1023,6 hPa 0,0 l/m 7,2 km/h (2 Bft) W-SW 247 -2,4 C 2,3 C 17,9 km/h (3 Bft)
18.02.2019 19:26 3,1 C -0,3 C 67 % 1023,6 hPa 0,0 l/m 5,8 km/h (2 Bft) W-SW 247 -2,4 C 3,1 C 12,6 km/h (3 Bft)
18.02.2019 19:24 2,9 C -0,3 C 69 % 1023,6 hPa 0,0 l/m 4,6 km/h (1 Bft) W-SW 247 -2,2 C 2,9 C 10,4 km/h (2 Bft)
18.02.2019 19:22 2,9 C -0,2 C 68 % 1023,6 hPa 0,0 l/m 3,1 km/h (1 Bft) SW 225 -2,4 C 2,9 C 9,7 km/h (2 Bft)
18.02.2019 19:20 2,8 C -0,2 C 68 % 1023,6 hPa 0,0 l/m 1,9 km/h (1 Bft) S 180 -2,5 C 2,8 C 2,4 km/h (1 Bft)
18.02.2019 19:18 2,9 C -0,2 C 68 % 1023,6 hPa 0,0 l/m 1,9 km/h (1 Bft) W 270 -2,4 C 2,9 C 5,1 km/h (1 Bft)
18.02.2019 19:16 2,7 C -0,2 C 68 % 1023,6 hPa 0,0 l/m 1,7 km/h (1 Bft) N-NW 337 -2,6 C 2,7 C 2,7 km/h (1 Bft)
18.02.2019 19:14 2,7 C -0,2 C 68 % 1023,6 hPa 0,0 l/m 1,7 km/h (1 Bft) W-SW 247 -2,6 C 2,7 C 3,1 km/h (1 Bft)
18.02.2019 19:12 2,7 C -0,2 C 68 % 1023,6 hPa 0,0 l/m 1,0 km/h (0 Bft) S-SW 202 -2,6 C 2,7 C 0,0 km/h (0 Bft)
18.02.2019 19:10 2,7 C -0,2 C 68 % 1023,6 hPa 0,0 l/m 1,0 km/h (0 Bft) SW 225 -2,6 C 2,7 C 0,0 km/h (0 Bft)
18.02.2019 19:08 2,8 C -0,2 C 68 % 1023,6 hPa 0,0 l/m 1,4 km/h (1 Bft) W 270 -2,5 C 2,8 C 0,0 km/h (0 Bft)
18.02.2019 19:06 2,7 C -0,2 C 68 % 1023,6 hPa 0,0 l/m 1,2 km/h (1 Bft) W-SW 247 -2,6 C 2,7 C 3,9 km/h (1 Bft)
18.02.2019 19:04 2,8 C -0,2 C 68 % 1023,6 hPa 0,0 l/m 1,0 km/h (0 Bft) SW 225 -2,5 C 2,8 C 0,0 km/h (0 Bft)
18.02.2019 19:02 2,9 C -0,2 C 68 % 1023,6 hPa 0,0 l/m 1,4 km/h (1 Bft) N-NO 22 -2,4 C 2,9 C 0,0 km/h (0 Bft)
18.02.2019 19:00 3,1 C -0,2 C 67 % 1023,9 hPa 0,0 l/m 2,7 km/h (1 Bft) N-NO 22 -2,4 C 3,1 C 0,0 km/h (0 Bft)
18.02.2019 18:58 3,1 C -0,2 C 67 % 1023,9 hPa 0,0 l/m 3,1 km/h (1 Bft) W-SW 247 -2,4 C 3,1 C 5,6 km/h (1 Bft)
18.02.2019 18:56 3,1 C -0,2 C 67 % 1023,9 hPa 0,0 l/m 3,1 km/h (1 Bft) S 180 -2,4 C 3,1 C 0,0 km/h (0 Bft)
18.02.2019 18:54 3,2 C -0,2 C 67 % 1023,9 hPa 0,0 l/m 3,6 km/h (1 Bft) N 360 -2,3 C 3,2 C 0,0 km/h (0 Bft)
18.02.2019 18:52 3,3 C -0,2 C 67 % 1023,9 hPa 0,0 l/m 3,6 km/h (1 Bft) W 270 -2,2 C 3,3 C 3,4 km/h (1 Bft)
18.02.2019 18:50 3,3 C -0,2 C 67 % 1023,9 hPa 0,0 l/m 2,4 km/h (1 Bft) W-SW 247 -2,2 C 3,3 C 8,4 km/h (2 Bft)
18.02.2019 18:48 3,2 C -0,2 C 67 % 1023,9 hPa 0,0 l/m 1,7 km/h (1 Bft) SW 225 -2,3 C 3,2 C 5,6 km/h (1 Bft)
18.02.2019 18:46 3,2 C -0,2 C 67 % 1023,9 hPa 0,0 l/m 1,2 km/h (1 Bft) W-SW 247 -2,3 C 3,2 C 3,9 km/h (1 Bft)
18.02.2019 18:44 3,1 C -0,2 C 67 % 1023,9 hPa 0,0 l/m 1,0 km/h (0 Bft) W-SW 247 -2,4 C 3,1 C 3,4 km/h (1 Bft)
18.02.2019 18:42 3,1 C -0,2 C 67 % 1023,9 hPa 0,0 l/m 1,2 km/h (1 Bft) N-NO 22 -2,4 C 3,1 C 0,0 km/h (0 Bft)
18.02.2019 18:40 3,2 C -0,2 C 67 % 1023,7 hPa 0,0 l/m 1,7 km/h (1 Bft) NW 315 -2,3 C 3,2 C 0,0 km/h (0 Bft)
18.02.2019 18:38 3,2 C -0,2 C 67 % 1023,7 hPa 0,0 l/m 1,7 km/h (1 Bft) NW 315 -2,3 C 3,2 C 3,1 km/h (1 Bft)
18.02.2019 18:36 3,2 C -0,2 C 67 % 1023,7 hPa 0,0 l/m 1,7 km/h (1 Bft) NW 315 -2,3 C 3,2 C 0,0 km/h (0 Bft)
18.02.2019 18:34 3,2 C -0,2 C 67 % 1023,7 hPa 0,0 l/m 1,4 km/h (1 Bft) W-SW 247 -2,3 C 3,2 C 2,9 km/h (1 Bft)
18.02.2019 18:32 3,2 C -0,2 C 67 % 1023,7 hPa 0,0 l/m 1,0 km/h (0 Bft) W-SW 247 -2,3 C 3,2 C 2,9 km/h (1 Bft)
18.02.2019 18:30 3,2 C -0,2 C 66 % 1023,7 hPa 0,0 l/m 0,7 km/h (0 Bft) W-SW 247 -2,5 C 3,2 C 4,1 km/h (1 Bft)
18.02.2019 18:28 3,2 C -0,2 C 66 % 1023,7 hPa 0,0 l/m 0,2 km/h (0 Bft) W-SW 247 -2,5 C 3,2 C 2,4 km/h (1 Bft)
18.02.2019 18:26 3,3 C -0,2 C 66 % 1023,7 hPa 0,0 l/m 0,7 km/h (0 Bft) W-SW 247 -2,4 C 3,3 C 2,7 km/h (1 Bft)
18.02.2019 18:24 3,3 C -0,2 C 66 % 1023,7 hPa 0,0 l/m 0,7 km/h (0 Bft) S 180 -2,4 C 3,3 C 0,0 km/h (0 Bft)
18.02.2019 18:22 3,3 C 0,0 C 66 % 1023,7 hPa 0,0 l/m 0,7 km/h (0 Bft) S-SO 157 -2,4 C 3,3 C 0,0 km/h (0 Bft)
18.02.2019 18:20 3,4 C 0,0 C 66 % 1023,7 hPa 0,0 l/m 0,7 km/h (0 Bft) S-SO 157 -2,3 C 3,4 C 0,0 km/h (0 Bft)
18.02.2019 18:18 3,3 C 0,0 C 66 % 1023,7 hPa 0,0 l/m 0,7 km/h (0 Bft) SW 225 -2,4 C 3,3 C 0,0 km/h (0 Bft)
18.02.2019 18:16 3,3 C -0,2 C 65 % 1023,7 hPa 0,0 l/m 0,5 km/h (0 Bft) W-SW 247 -2,6 C 3,3 C 2,9 km/h (1 Bft)
18.02.2019 18:14 3,3 C -0,2 C 65 % 1023,7 hPa 0,0 l/m 0,0 km/h (0 Bft) W 270 -2,6 C 3,3 C 0,0 km/h (0 Bft)
18.02.2019 18:12 3,3 C 0,0 C 65 % 1023,7 hPa 0,0 l/m 0,0 km/h (0 Bft) W 270 -2,6 C 3,3 C 0,0 km/h (0 Bft)
18.02.2019 18:10 3,3 C 0,0 C 65 % 1023,7 hPa 0,0 l/m 0,0 km/h (0 Bft) O 90 -2,6 C 3,3 C 0,0 km/h (0 Bft)
18.02.2019 18:08 3,4 C 0,0 C 65 % 1023,7 hPa 0,0 l/m 0,0 km/h (0 Bft) W-SW 247 -2,5 C 3,4 C 0,0 km/h (0 Bft)
18.02.2019 18:06 3,4 C 0,0 C 65 % 1023,7 hPa 0,0 l/m 0,0 km/h (0 Bft) SW 225 -2,5 C 3,4 C 0,0 km/h (0 Bft)
18.02.2019 18:04 3,6 C -0,2 C 65 % 1023,7 hPa 0,0 l/m 0,0 km/h (0 Bft) W-NW 292 -2,4 C 3,6 C 0,0 km/h (0 Bft)
18.02.2019 18:02 3,6 C 0,0 C 65 % 1023,7 hPa 0,0 l/m 0,0 km/h (0 Bft) W-NW 292 -2,4 C 3,6 C 2,7 km/h (1 Bft)
18.02.2019 18:00 3,6 C 0,0 C 64 % 1023,6 hPa 0,0 l/m 0,0 km/h (0 Bft) N 360 -2,6 C 3,6 C 0,0 km/h (0 Bft)
18.02.2019 17:58 3,6 C 0,0 C 64 % 1023,6 hPa 0,0 l/m 0,0 km/h (0 Bft) N-NO 22 -2,6 C 3,6 C 0,0 km/h (0 Bft)
18.02.2019 17:56 3,6 C 0,0 C 64 % 1023,6 hPa 0,0 l/m 0,0 km/h (0 Bft) N 360 -2,6 C 3,6 C 0,0 km/h (0 Bft)
18.02.2019 17:54 3,7 C 0,0 C 64 % 1023,6 hPa 0,0 l/m 0,0 km/h (0 Bft) NW 315 -2,5 C 3,7 C 0,0 km/h (0 Bft)
18.02.2019 17:52 3,7 C 0,0 C 64 % 1023,6 hPa 0,0 l/m 0,0 km/h (0 Bft) NW 315 -2,5 C 3,7 C 0,0 km/h (0 Bft)
18.02.2019 17:50 3,6 C -0,1 C 64 % 1023,6 hPa 0,0 l/m 0,0 km/h (0 Bft) NW 315 -2,6 C 3,6 C 0,0 km/h (0 Bft)
18.02.2019 17:48 3,8 C -0,1 C 64 % 1023,6 hPa 0,0 l/m 0,0 km/h (0 Bft) N-NW 337 -2,4 C 3,8 C 0,0 km/h (0 Bft)
18.02.2019 17:46 3,8 C -0,1 C 64 % 1023,6 hPa 0,0 l/m 0,0 km/h (0 Bft) N-NW 337 -2,4 C 3,8 C 0,0 km/h (0 Bft)
18.02.2019 17:44 3,8 C -0,1 C 64 % 1023,6 hPa 0,0 l/m 0,0 km/h (0 Bft) SO 135 -2,4 C 3,8 C 0,0 km/h (0 Bft)
18.02.2019 17:42 3,9 C -0,1 C 64 % 1023,6 hPa 0,0 l/m 0,0 km/h (0 Bft) SO 135 -2,3 C 3,9 C 0,0 km/h (0 Bft)
18.02.2019 17:40 3,9 C -0,1 C 63 % 1023,6 hPa 0,0 l/m 0,0 km/h (0 Bft) SO 135 -2,5 C 3,9 C 0,0 km/h (0 Bft)
18.02.2019 17:38 3,9 C -0,1 C 63 % 1023,6 hPa 0,0 l/m 0,0 km/h (0 Bft) S-SO 157 -2,5 C 3,9 C 0,0 km/h (0 Bft)
18.02.2019 17:36 4,0 C -0,1 C 63 % 1023,6 hPa 0,0 l/m 0,0 km/h (0 Bft) S 180 -2,4 C 4,0 C 0,0 km/h (0 Bft)
18.02.2019 17:34 4,1 C -0,1 C 63 % 1023,6 hPa 0,0 l/m 0,2 km/h (0 Bft) N-NO 22 -2,3 C 4,1 C 0,0 km/h (0 Bft)
18.02.2019 17:32 4,1 C -0,1 C 63 % 1023,6 hPa 0,0 l/m 0,5 km/h (0 Bft) N-NO 22 -2,3 C 4,1 C 0,0 km/h (0 Bft)
18.02.2019 17:30 4,1 C -0,1 C 63 % 1023,6 hPa 0,0 l/m 0,5 km/h (0 Bft) N-NO 22 -2,3 C 4,1 C 0,0 km/h (0 Bft)
18.02.2019 17:28 4,2 C -0,1 C 63 % 1023,6 hPa 0,0 l/m 0,5 km/h (0 Bft) N-NO 22 -2,2 C 4,2 C 0,0 km/h (0 Bft)
18.02.2019 17:26 4,2 C -0,1 C 63 % 1023,6 hPa 0,0 l/m 0,5 km/h (0 Bft) N-NO 22 -2,2 C 4,2 C 2,7 km/h (1 Bft)
18.02.2019 17:24 4,2 C -0,1 C 63 % 1023,6 hPa 0,0 l/m 0,5 km/h (0 Bft) N 360 -2,2 C 4,2 C 2,7 km/h (1 Bft)
18.02.2019 17:22 4,4 C -0,1 C 63 % 1023,6 hPa 0,0 l/m 0,0 km/h (0 Bft) N 360 -2,0 C 4,4 C 0,0 km/h (0 Bft)
18.02.2019 17:20 4,4 C -0,1 C 63 % 1023,8 hPa 0,0 l/m 0,0 km/h (0 Bft) N-NO 22 -2,0 C 4,4 C 0,0 km/h (0 Bft)
18.02.2019 17:18 4,4 C -0,1 C 63 % 1023,8 hPa 0,0 l/m 0,0 km/h (0 Bft) N-NO 22 -2,0 C 4,4 C 0,0 km/h (0 Bft)
18.02.2019 17:16 4,4 C -0,1 C 63 % 1023,8 hPa 0,0 l/m 0,0 km/h (0 Bft) N-NO 22 -2,0 C 4,4 C 0,0 km/h (0 Bft)
18.02.2019 17:14 4,4 C -0,1 C 63 % 1023,8 hPa 0,0 l/m 0,0 km/h (0 Bft) NO 45 -2,0 C 4,4 C 0,0 km/h (0 Bft)
18.02.2019 17:12 4,5 C -0,1 C 62 % 1023,8 hPa 0,0 l/m 0,0 km/h (0 Bft) N-NO 22 -2,1 C 4,5 C 0,0 km/h (0 Bft)
18.02.2019 17:10 4,5 C -0,1 C 62 % 1023,8 hPa 0,0 l/m 0,0 km/h (0 Bft) NO 45 -2,1 C 4,5 C 0,0 km/h (0 Bft)
18.02.2019 17:08 4,6 C -0,1 C 62 % 1023,8 hPa 0,0 l/m 0,0 km/h (0 Bft) SO 135 -2,0 C 4,6 C 0,0 km/h (0 Bft)
18.02.2019 17:06 4,6 C -0,1 C 62 % 1023,8 hPa 0,0 l/m 0,0 km/h (0 Bft) O 90 -2,0 C 4,6 C 0,0 km/h (0 Bft)
18.02.2019 17:04 4,6 C -0,1 C 62 % 1023,8 hPa 0,0 l/m 0,0 km/h (0 Bft) W-SW 247 -2,0 C 4,6 C 0,0 km/h (0 Bft)
18.02.2019 17:02 4,7 C -0,1 C 62 % 1023,8 hPa 0,0 l/m 0,0 km/h (0 Bft) W 270 -1,9 C 4,7 C 0,0 km/h (0 Bft)
18.02.2019 17:00 4,7 C -0,1 C 62 % 1024,0 hPa 0,0 l/m 0,0 km/h (0 Bft) N-NO 22 -1,9 C 4,7 C 0,0 km/h (0 Bft)
18.02.2019 16:58 4,9 C -0,1 C 62 % 1024,0 hPa 0,0 l/m 0,0 km/h (0 Bft) O-SO 112 -1,8 C 4,9 C 0,0 km/h (0 Bft)
18.02.2019 16:56 4,9 C -0,1 C 62 % 1024,0 hPa 0,0 l/m 0,0 km/h (0 Bft) SO 135 -1,8 C 4,9 C 0,0 km/h (0 Bft)
18.02.2019 16:54 5,0 C -0,1 C 62 % 1024,0 hPa 0,0 l/m 0,0 km/h (0 Bft) O-SO 112 -1,7 C 5,0 C 0,0 km/h (0 Bft)
18.02.2019 16:52 5,0 C -0,1 C 61 % 1024,0 hPa 0,0 l/m 0,0 km/h (0 Bft) O-NO 67 -1,9 C 5,0 C 0,0 km/h (0 Bft)
18.02.2019 16:50 5,2 C -0,1 C 61 % 1024,0 hPa 0,0 l/m 0,0 km/h (0 Bft) SO 135 -1,7 C 5,2 C 0,0 km/h (0 Bft)
18.02.2019 16:48 5,2 C -0,1 C 61 % 1024,0 hPa 0,0 l/m 0,0 km/h (0 Bft) S-SO 157 -1,7 C 5,2 C 0,0 km/h (0 Bft)
18.02.2019 16:46 5,2 C -0,1 C 61 % 1024,0 hPa 0,0 l/m 0,0 km/h (0 Bft) O-SO 112 -1,7 C 5,2 C 0,0 km/h (0 Bft)
18.02.2019 16:44 5,3 C -0,1 C 61 % 1024,0 hPa 0,0 l/m 0,0 km/h (0 Bft) SO 135 -1,6 C 5,3 C 0,0 km/h (0 Bft)
18.02.2019 16:42 5,4 C -0,1 C 61 % 1024,0 hPa 0,0 l/m 0,0 km/h (0 Bft) O-NO 67 -1,5 C 5,4 C 0,0 km/h (0 Bft)
18.02.2019 16:40 5,5 C -0,1 C 61 % 1024,2 hPa 0,0 l/m 0,2 km/h (0 Bft) SO 135 -1,4 C 5,5 C 0,0 km/h (0 Bft)
18.02.2019 16:38 5,6 C -0,1 C 61 % 1024,2 hPa 0,0 l/m 0,5 km/h (0 Bft) SO 135 -1,3 C 5,6 C 0,0 km/h (0 Bft)
18.02.2019 16:36 5,6 C -0,1 C 61 % 1024,2 hPa 0,0 l/m 0,7 km/h (0 Bft) SO 135 -1,3 C 5,6 C 0,0 km/h (0 Bft)
18.02.2019 16:34 5,7 C -0,1 C 61 % 1024,2 hPa 0,0 l/m 1,0 km/h (0 Bft) S 180 -1,2 C 5,7 C 0,0 km/h (0 Bft)
18.02.2019 16:32 6,0 C -0,1 C 60 % 1024,2 hPa 0,0 l/m 1,0 km/h (0 Bft) S-SO 157 -1,2 C 6,0 C 0,0 km/h (0 Bft)
18.02.2019 16:30 6,0 C -0,1 C 60 % 1024,2 hPa 0,0 l/m 1,0 km/h (0 Bft) O-SO 112 -1,2 C 6,0 C 2,9 km/h (1 Bft)
18.02.2019 16:28 6,1 C -0,1 C 60 % 1024,2 hPa 0,0 l/m 0,7 km/h (0 Bft) O-NO 67 -1,1 C 6,1 C 0,0 km/h (0 Bft)
18.02.2019 16:26 6,1 C -0,1 C 60 % 1024,2 hPa 0,0 l/m 0,5 km/h (0 Bft) O-NO 67 -1,1 C 6,1 C 0,0 km/h (0 Bft)
18.02.2019 16:24 6,1 C -0,1 C 59 % 1024,2 hPa 0,0 l/m 0,2 km/h (0 Bft) O-SO 112 -1,3 C 6,1 C 0,0 km/h (0 Bft)
18.02.2019 16:22 6,1 C -0,1 C 59 % 1024,2 hPa 0,0 l/m 0,2 km/h (0 Bft) NO 45 -1,3 C 6,1 C 2,7 km/h (1 Bft)
18.02.2019 16:20 6,2 C -0,1 C 59 % 1024,4 hPa 0,0 l/m 0,0 km/h (0 Bft) SO 135 -1,2 C 6,2 C 0,0 km/h (0 Bft)
18.02.2019 16:18 6,3 C -0,1 C 59 % 1024,4 hPa 0,0 l/m 0,0 km/h (0 Bft) S-SO 157 -1,1 C 6,3 C 0,0 km/h (0 Bft)
18.02.2019 16:16 6,4 C -0,1 C 59 % 1024,4 hPa 0,0 l/m 0,2 km/h (0 Bft) SO 135 -1,0 C 6,4 C 2,7 km/h (1 Bft)
18.02.2019 16:14 6,4 C -0,1 C 59 % 1024,4 hPa 0,0 l/m 0,5 km/h (0 Bft) S 180 -1,0 C 6,4 C 0,0 km/h (0 Bft)
18.02.2019 16:12 6,6 C -0,1 C 59 % 1024,4 hPa 0,0 l/m 0,5 km/h (0 Bft) SO 135 -0,8 C 6,6 C 0,0 km/h (0 Bft)
18.02.2019 16:10 6,8 C -0,1 C 59 % 1024,4 hPa 0,0 l/m 0,5 km/h (0 Bft) SO 135 -0,6 C 6,8 C 0,0 km/h (0 Bft)
18.02.2019 16:08 6,8 C -0,1 C 59 % 1024,4 hPa 0,0 l/m 0,7 km/h (0 Bft) SO 135 -0,6 C 6,8 C 0,0 km/h (0 Bft)
18.02.2019 16:06 6,8 C -0,1 C 58 % 1024,4 hPa 0,0 l/m 0,7 km/h (0 Bft) SO 135 -0,9 C 6,8 C 3,6 km/h (1 Bft)
18.02.2019 16:04 6,8 C -0,1 C 58 % 1024,4 hPa 0,0 l/m 0,5 km/h (0 Bft) SO 135 -0,9 C 6,8 C 2,9 km/h (1 Bft)
18.02.2019 16:02 6,8 C -0,1 C 58 % 1024,4 hPa 0,0 l/m 0,2 km/h (0 Bft) SO 135 -0,9 C 6,8 C 0,0 km/h (0 Bft)
18.02.2019 16:00 6,9 C -0,1 C 58 % 1024,5 hPa 0,0 l/m 0,5 km/h (0 Bft) O-SO 112 -0,8 C 6,9 C 2,4 km/h (1 Bft)
18.02.2019 15:58 7,0 C -0,1 C 58 % 1024,5 hPa 0,0 l/m 0,5 km/h (0 Bft) SO 135 -0,7 C 7,0 C 0,0 km/h (0 Bft)
18.02.2019 15:56 7,2 C -0,1 C 58 % 1024,5 hPa 0,0 l/m 0,5 km/h (0 Bft) W-NW 292 -0,5 C 7,2 C 2,4 km/h (1 Bft)
18.02.2019 15:54 7,3 C -0,1 C 57 % 1024,5 hPa 0,0 l/m 0,5 km/h (0 Bft) O-SO 112 -0,6 C 7,3 C 0,0 km/h (0 Bft)
18.02.2019 15:52 7,3 C -0,1 C 57 % 1024,5 hPa 0,0 l/m 0,5 km/h (0 Bft) SO 135 -0,6 C 7,3 C 0,0 km/h (0 Bft)
18.02.2019 15:50 7,3 C -0,1 C 57 % 1024,5 hPa 0,0 l/m 0,2 km/h (0 Bft) O-SO 112 -0,6 C 7,3 C 3,4 km/h (1 Bft)
18.02.2019 15:48 7,4 C -0,1 C 57 % 1024,5 hPa 0,0 l/m 0,2 km/h (0 Bft) SO 135 -0,5 C 7,4 C 0,0 km/h (0 Bft)
18.02.2019 15:46 7,4 C -0,2 C 57 % 1024,5 hPa 0,0 l/m 0,7 km/h (0 Bft) SO 135 -0,5 C 7,4 C 0,0 km/h (0 Bft)
18.02.2019 15:44 7,5 C -0,2 C 57 % 1024,5 hPa 0,0 l/m 1,0 km/h (0 Bft) O-SO 112 -0,5 C 7,5 C 0,0 km/h (0 Bft)
18.02.2019 15:42 7,7 C -0,2 C 56 % 1024,5 hPa 0,0 l/m 1,0 km/h (0 Bft) SO 135 -0,5 C 7,7 C 0,0 km/h (0 Bft)
18.02.2019 15:40 7,8 C -0,2 C 56 % 1024,7 hPa 0,0 l/m 1,0 km/h (0 Bft) O-NO 67 -0,4 C 7,8 C 0,0 km/h (0 Bft)
18.02.2019 15:38 8,0 C -0,2 C 56 % 1024,7 hPa 0,0 l/m 1,0 km/h (0 Bft) SO 135 -0,2 C 8,0 C 2,9 km/h (1 Bft)
18.02.2019 15:36 8,0 C -0,2 C 56 % 1024,7 hPa 0,0 l/m 1,4 km/h (1 Bft) O 90 -0,2 C 8,0 C 2,7 km/h (1 Bft)
18.02.2019 15:34 8,0 C -0,2 C 56 % 1024,7 hPa 0,0 l/m 1,2 km/h (1 Bft) N-NW 337 -0,2 C 8,0 C 4,1 km/h (1 Bft)
18.02.2019 15:32 8,2 C -0,2 C 56 % 1024,7 hPa 0,0 l/m 1,4 km/h (1 Bft) SO 135 -0,0 C 8,2 C 0,0 km/h (0 Bft)
18.02.2019 15:30 8,3 C -0,2 C 55 % 1024,7 hPa 0,0 l/m 2,2 km/h (1 Bft) O-SO 112 -0,2 C 8,3 C 0,0 km/h (0 Bft)
18.02.2019 15:28 8,3 C -0,2 C 55 % 1024,7 hPa 0,0 l/m 2,7 km/h (1 Bft) O-SO 112 -0,2 C 8,3 C 2,4 km/h (1 Bft)
18.02.2019 15:26 8,3 C -0,2 C 55 % 1024,7 hPa 0,0 l/m 2,4 km/h (1 Bft) SO 135 -0,2 C 8,3 C 4,3 km/h (1 Bft)
18.02.2019 15:24 8,4 C -0,2 C 55 % 1024,7 hPa 0,0 l/m 1,9 km/h (1 Bft) SO 135 -0,1 C 8,4 C 2,4 km/h (1 Bft)
18.02.2019 15:22 8,3 C -0,2 C 55 % 1024,7 hPa 0,0 l/m 1,7 km/h (1 Bft) O 90 -0,2 C 8,3 C 2,9 km/h (1 Bft)
18.02.2019 15:20 8,2 C -0,2 C 55 % 1024,8 hPa 0,0 l/m 1,2 km/h (1 Bft) SO 135 -0,3 C 8,2 C 4,6 km/h (1 Bft)
18.02.2019 15:18 8,3 C -0,2 C 54 % 1024,8 hPa 0,0 l/m 1,4 km/h (1 Bft) O-SO 112 -0,5 C 8,3 C 3,9 km/h (1 Bft)
18.02.2019 15:16 8,5 C -0,2 C 54 % 1024,8 hPa 0,0 l/m 1,0 km/h (0 Bft) O-SO 112 -0,3 C 8,5 C 0,0 km/h (0 Bft)
18.02.2019 15:14 8,6 C -0,2 C 54 % 1024,8 hPa 0,0 l/m 1,0 km/h (0 Bft) S-SO 157 -0,2 C 8,6 C 0,0 km/h (0 Bft)
18.02.2019 15:12 8,6 C -0,2 C 54 % 1024,8 hPa 0,0 l/m 1,2 km/h (1 Bft) SO 135 -0,2 C 8,6 C 2,4 km/h (1 Bft)
18.02.2019 15:10 8,6 C -0,2 C 54 % 1024,8 hPa 0,0 l/m 1,0 km/h (0 Bft) O 90 -0,2 C 8,6 C 0,0 km/h (0 Bft)
18.02.2019 15:08 8,6 C -0,2 C 54 % 1024,8 hPa 0,0 l/m 0,5 km/h (0 Bft) SO 135 -0,2 C 8,6 C 3,6 km/h (1 Bft)
18.02.2019 15:06 8,6 C -0,2 C 54 % 1024,8 hPa 0,0 l/m 0,5 km/h (0 Bft) O-NO 67 -0,2 C 8,6 C 0,0 km/h (0 Bft)
18.02.2019 15:04 8,6 C -0,2 C 54 % 1024,8 hPa 0,0 l/m 0,5 km/h (0 Bft) SO 135 -0,2 C 8,6 C 2,4 km/h (1 Bft)
18.02.2019 15:02 8,7 C -0,2 C 54 % 1024,8 hPa 0,0 l/m 0,7 km/h (0 Bft) O-SO 112 -0,1 C 8,7 C 4,3 km/h (1 Bft)
18.02.2019 15:00 8,8 C -0,2 C 54 % 1024,9 hPa 0,0 l/m 0,7 km/h (0 Bft) SO 135 0,0 C 8,8 C 0,0 km/h (0 Bft)
18.02.2019 14:58 8,8 C -0,2 C 54 % 1024,9 hPa 0,0 l/m 1,2 km/h (1 Bft) S-SO 157 0,0 C 8,8 C 0,0 km/h (0 Bft)
18.02.2019 14:56 8,8 C -0,2 C 54 % 1024,9 hPa 0,0 l/m 1,9 km/h (1 Bft) NO 45 0,0 C 8,8 C 0,0 km/h (0 Bft)
18.02.2019 14:54 9,1 C -0,2 C 53 % 1024,9 hPa 0,0 l/m 2,2 km/h (1 Bft) SO 135 0,0 C 9,1 C 3,1 km/h (1 Bft)
18.02.2019 14:52 9,0 C -0,2 C 53 % 1024,9 hPa 0,0 l/m 2,4 km/h (1 Bft) S-SO 157 -0,1 C 9,0 C 2,4 km/h (1 Bft)
18.02.2019 14:50 9,1 C -0,2 C 53 % 1024,9 hPa 0,0 l/m 2,4 km/h (1 Bft) O-SO 112 0,0 C 9,1 C 2,4 km/h (1 Bft)
18.02.2019 14:48 9,1 C -0,2 C 53 % 1024,9 hPa 0,0 l/m 1,9 km/h (1 Bft) O 90 0,0 C 9,1 C 2,9 km/h (1 Bft)
18.02.2019 14:46 9,0 C -0,2 C 53 % 1024,9 hPa 0,0 l/m 1,7 km/h (1 Bft) SO 135 -0,1 C 9,0 C 3,9 km/h (1 Bft)
18.02.2019 14:44 8,8 C -0,2 C 53 % 1024,9 hPa 0,0 l/m 1,2 km/h (1 Bft) SO 135 -0,2 C 8,8 C 4,8 km/h (1 Bft)
18.02.2019 14:42 8,9 C -0,2 C 53 % 1024,9 hPa 0,0 l/m 1,0 km/h (0 Bft) SO 135 -0,1 C 8,9 C 2,4 km/h (1 Bft)
18.02.2019 14:40 9,0 C -0,2 C 53 % 1025,2 hPa 0,0 l/m 1,0 km/h (0 Bft) SO 135 -0,1 C 9,0 C 0,0 km/h (0 Bft)
18.02.2019 14:38 9,0 C -0,2 C 53 % 1025,2 hPa 0,0 l/m 1,4 km/h (1 Bft) SO 135 -0,1 C 9,0 C 2,4 km/h (1 Bft)
18.02.2019 14:36 9,0 C -0,2 C 53 % 1025,2 hPa 0,0 l/m 1,7 km/h (1 Bft) SO 135 -0,1 C 9,0 C 3,4 km/h (1 Bft)
18.02.2019 14:34 9,0 C -0,2 C 53 % 1025,2 hPa 0,0 l/m 1,4 km/h (1 Bft) O-SO 112 -0,1 C 9,0 C 0,0 km/h (0 Bft)
18.02.2019 14:32 9,2 C -0,2 C 52 % 1025,2 hPa 0,0 l/m 1,4 km/h (1 Bft) SW 225 -0,1 C 9,2 C 0,0 km/h (0 Bft)
18.02.2019 14:30 8,9 C -0,2 C 53 % 1025,2 hPa 0,0 l/m 1,2 km/h (1 Bft) SO 135 -0,1 C 8,9 C 0,0 km/h (0 Bft)
18.02.2019 14:28 8,8 C -0,2 C 53 % 1025,2 hPa 0,0 l/m 1,4 km/h (1 Bft) N 360 -0,2 C 8,8 C 2,4 km/h (1 Bft)
18.02.2019 14:26 9,0 C -0,2 C 52 % 1025,2 hPa 0,0 l/m 1,7 km/h (1 Bft) N-NO 22 -0,3 C 9,0 C 3,9 km/h (1 Bft)
18.02.2019 14:24 8,9 C -0,2 C 53 % 1025,2 hPa 0,0 l/m 1,9 km/h (1 Bft) SO 135 -0,1 C 8,9 C 0,0 km/h (0 Bft)
18.02.2019 14:22 8,9 C -0,2 C 53 % 1025,2 hPa 0,0 l/m 2,7 km/h (1 Bft) S-SO 157 -0,1 C 8,9 C 0,0 km/h (0 Bft)
18.02.2019 14:20 8,9 C -0,2 C 53 % 1025,1 hPa 0,0 l/m 3,4 km/h (1 Bft) O-SO 112 -0,1 C 8,9 C 3,6 km/h (1 Bft)
18.02.2019 14:18 9,0 C -0,2 C 53 % 1025,1 hPa 0,0 l/m 2,9 km/h (1 Bft) NO 45 -0,1 C 9,0 C 6,0 km/h (2 Bft)
18.02.2019 14:16 8,8 C -0,2 C 53 % 1025,1 hPa 0,0 l/m 2,4 km/h (1 Bft) NO 45 -0,2 C 8,8 C 6,5 km/h (2 Bft)
18.02.2019 14:14 8,9 C -0,2 C 53 % 1025,1 hPa 0,0 l/m 2,2 km/h (1 Bft) O 90 -0,1 C 8,9 C 3,1 km/h (1 Bft)
18.02.2019 14:12 8,6 C -0,1 C 54 % 1025,1 hPa 0,0 l/m 1,2 km/h (1 Bft) O-NO 67 -0,2 C 8,6 C 4,1 km/h (1 Bft)
18.02.2019 14:10 8,3 C -0,1 C 54 % 1025,1 hPa 0,0 l/m 1,0 km/h (0 Bft) SO 135 -0,5 C 8,3 C 3,9 km/h (1 Bft)
18.02.2019 14:08 8,3 C -0,1 C 54 % 1025,1 hPa 0,0 l/m 0,7 km/h (0 Bft) O-NO 67 -0,5 C 8,3 C 0,0 km/h (0 Bft)
18.02.2019 14:06 8,3 C -0,2 C 54 % 1025,1 hPa 0,0 l/m 1,4 km/h (1 Bft) O-SO 112 -0,5 C 8,3 C 3,4 km/h (1 Bft)
18.02.2019 14:04 8,4 C -0,2 C 54 % 1025,1 hPa 0,0 l/m 1,4 km/h (1 Bft) O-NO 67 -0,4 C 8,4 C 4,6 km/h (1 Bft)
18.02.2019 14:02 8,4 C -0,2 C 54 % 1025,1 hPa 0,0 l/m 1,2 km/h (1 Bft) O 90 -0,4 C 8,4 C 0,0 km/h (0 Bft)
18.02.2019 14:00 8,5 C -0,2 C 54 % 1025,3 hPa 0,0 l/m 1,7 km/h (1 Bft) SO 135 -0,3 C 8,5 C 2,7 km/h (1 Bft)
18.02.2019 13:58 8,5 C -0,2 C 53 % 1025,3 hPa 0,0 l/m 1,9 km/h (1 Bft) O-SO 112 -0,5 C 8,5 C 0,0 km/h (0 Bft)
18.02.2019 13:56 8,5 C -0,2 C 53 % 1025,3 hPa 0,0 l/m 1,2 km/h (1 Bft) NO 45 -0,5 C 8,5 C 5,8 km/h (2 Bft)
18.02.2019 13:54 8,5 C -0,2 C 53 % 1025,3 hPa 0,0 l/m 1,0 km/h (0 Bft) NO 45 -0,5 C 8,5 C 2,9 km/h (1 Bft)
18.02.2019 13:52 8,6 C -0,1 C 53 % 1025,3 hPa 0,0 l/m 1,4 km/h (1 Bft) SO 135 -0,4 C 8,6 C 0,0 km/h (0 Bft)
18.02.2019 13:50 8,5 C -0,1 C 53 % 1025,3 hPa 0,0 l/m 1,9 km/h (1 Bft) O-SO 112 -0,5 C 8,5 C 3,4 km/h (1 Bft)
18.02.2019 13:48 8,6 C -0,1 C 53 % 1025,3 hPa 0,0 l/m 1,7 km/h (1 Bft) O-SO 112 -0,4 C 8,6 C 3,1 km/h (1 Bft)
18.02.2019 13:46 8,5 C -0,1 C 53 % 1025,3 hPa 0,0 l/m 1,9 km/h (1 Bft) SO 135 -0,5 C 8,5 C 0,0 km/h (0 Bft)
18.02.2019 13:44 8,5 C -0,1 C 53 % 1025,3 hPa 0,0 l/m 2,2 km/h (1 Bft) W 270 -0,5 C 8,5 C 2,7 km/h (1 Bft)
18.02.2019 13:42 8,4 C -0,1 C 53 % 1025,3 hPa 0,0 l/m 1,9 km/h (1 Bft) NO 45 -0,6 C 8,4 C 4,3 km/h (1 Bft)
18.02.2019 13:40 8,4 C -0,1 C 53 % 1025,5 hPa 0,0 l/m 1,7 km/h (1 Bft) O-NO 67 -0,6 C 8,4 C 3,9 km/h (1 Bft)
18.02.2019 13:38 8,3 C -0,1 C 53 % 1025,5 hPa 0,0 l/m 1,9 km/h (1 Bft) N-NO 22 -0,7 C 8,3 C 3,9 km/h (1 Bft)
18.02.2019 13:36 8,3 C -0,1 C 53 % 1025,5 hPa 0,0 l/m 2,2 km/h (1 Bft) N-NO 22 -0,7 C 8,3 C 5,6 km/h (1 Bft)
18.02.2019 13:34 8,3 C -0,1 C 53 % 1025,5 hPa 0,0 l/m 1,9 km/h (1 Bft) O-SO 112 -0,7 C 8,3 C 3,1 km/h (1 Bft)
18.02.2019 13:32 8,4 C -0,1 C 53 % 1025,5 hPa 0,0 l/m 1,9 km/h (1 Bft) W-SW 247 -0,6 C 8,4 C 0,0 km/h (0 Bft)
18.02.2019 13:30 8,4 C -0,1 C 53 % 1025,5 hPa 0,0 l/m 1,7 km/h (1 Bft) NO 45 -0,6 C 8,4 C 3,4 km/h (1 Bft)
18.02.2019 13:28 8,4 C -0,1 C 53 % 1025,5 hPa 0,0 l/m 1,4 km/h (1 Bft) SO 135 -0,6 C 8,4 C 3,9 km/h (1 Bft)
18.02.2019 13:26 8,4 C -0,1 C 53 % 1025,5 hPa 0,0 l/m 1,7 km/h (1 Bft) SO 135 -0,6 C 8,4 C 0,0 km/h (0 Bft)
18.02.2019 13:24 8,4 C -0,2 C 53 % 1025,5 hPa 0,0 l/m 1,9 km/h (1 Bft) NO 45 -0,6 C 8,4 C 2,4 km/h (1 Bft)
18.02.2019 13:22 8,5 C -0,1 C 53 % 1025,5 hPa 0,0 l/m 2,2 km/h (1 Bft) SO 135 -0,5 C 8,5 C 0,0 km/h (0 Bft)
18.02.2019 13:20 8,4 C -0,1 C 53 % 1025,9 hPa 0,0 l/m 2,9 km/h (1 Bft) SO 135 -0,6 C 8,4 C 0,0 km/h (0 Bft)
18.02.2019 13:18 8,4 C -0,1 C 53 % 1025,9 hPa 0,0 l/m 2,9 km/h (1 Bft) SO 135 -0,6 C 8,4 C 4,1 km/h (1 Bft)
18.02.2019 13:16 8,4 C -0,2 C 53 % 1025,9 hPa 0,0 l/m 2,4 km/h (1 Bft) S-SO 157 -0,6 C 8,4 C 3,1 km/h (1 Bft)
18.02.2019 13:14 8,4 C -0,1 C 53 % 1025,9 hPa 0,0 l/m 2,2 km/h (1 Bft) N-NO 22 -0,6 C 8,4 C 4,1 km/h (1 Bft)
18.02.2019 13:12 8,4 C -0,2 C 53 % 1025,9 hPa 0,0 l/m 2,2 km/h (1 Bft) SO 135 -0,6 C 8,4 C 0,0 km/h (0 Bft)
18.02.2019 13:10 8,3 C -0,2 C 53 % 1025,9 hPa 0,0 l/m 1,9 km/h (1 Bft) NO 45 -0,7 C 8,3 C 6,5 km/h (2 Bft)
18.02.2019 13:08 8,3 C -0,2 C 52 % 1025,9 hPa 0,0 l/m 1,2 km/h (1 Bft) SO 135 -1,0 C 8,3 C 0,0 km/h (0 Bft)
18.02.2019 13:06 8,3 C -0,2 C 52 % 1025,9 hPa 0,0 l/m 1,2 km/h (1 Bft) N-NW 337 -1,0 C 8,3 C 2,9 km/h (1 Bft)
18.02.2019 13:04 8,3 C -0,2 C 52 % 1025,9 hPa 0,0 l/m 1,2 km/h (1 Bft) NO 45 -1,0 C 8,3 C 0,0 km/h (0 Bft)
18.02.2019 13:02 8,4 C -0,2 C 52 % 1025,9 hPa 0,0 l/m 1,0 km/h (0 Bft) O-NO 67 -0,9 C 8,4 C 2,7 km/h (1 Bft)
18.02.2019 13:00 8,5 C -0,2 C 52 % 1026,1 hPa 0,0 l/m 1,4 km/h (1 Bft) SW 225 -0,8 C 8,5 C 3,4 km/h (1 Bft)
18.02.2019 12:58 8,6 C -0,2 C 52 % 1026,1 hPa 0,0 l/m 1,4 km/h (1 Bft) S-SO 157 -0,7 C 8,6 C 2,4 km/h (1 Bft)
18.02.2019 12:56 8,6 C -0,2 C 52 % 1026,1 hPa 0,0 l/m 2,2 km/h (1 Bft) O-NO 67 -0,7 C 8,6 C 0,0 km/h (0 Bft)
18.02.2019 12:54 8,6 C -0,2 C 52 % 1026,1 hPa 0,0 l/m 2,7 km/h (1 Bft) S-SO 157 -0,7 C 8,6 C 2,9 km/h (1 Bft)
18.02.2019 12:52 8,6 C -0,2 C 52 % 1026,1 hPa 0,0 l/m 3,6 km/h (1 Bft) O-NO 67 -0,7 C 8,6 C 2,7 km/h (1 Bft)
18.02.2019 12:50 8,6 C -0,2 C 52 % 1026,1 hPa 0,0 l/m 3,1 km/h (1 Bft) SO 135 -0,7 C 8,6 C 4,8 km/h (1 Bft)
18.02.2019 12:48 8,6 C -0,2 C 52 % 1026,1 hPa 0,0 l/m 2,9 km/h (1 Bft) O-SO 112 -0,7 C 8,6 C 0,0 km/h (0 Bft)
18.02.2019 12:46 8,6 C -0,2 C 52 % 1026,1 hPa 0,0 l/m 3,1 km/h (1 Bft) SO 135 -0,7 C 8,6 C 5,3 km/h (1 Bft)
18.02.2019 12:44 8,5 C -0,2 C 52 % 1026,1 hPa 0,0 l/m 3,4 km/h (1 Bft) O-SO 112 -0,8 C 8,5 C 2,9 km/h (1 Bft)
18.02.2019 12:42 8,5 C -0,2 C 52 % 1026,1 hPa 0,0 l/m 2,9 km/h (1 Bft) SO 135 -0,8 C 8,5 C 10,4 km/h (2 Bft)
18.02.2019 12:40 8,4 C -0,2 C 52 % 1026,4 hPa 0,0 l/m 1,9 km/h (1 Bft) SO 135 -0,9 C 8,4 C 2,9 km/h (1 Bft)
18.02.2019 12:38 8,4 C -0,2 C 52 % 1026,4 hPa 0,0 l/m 1,7 km/h (1 Bft) O-NO 67 -0,9 C 8,4 C 4,6 km/h (1 Bft)
18.02.2019 12:36 8,5 C -0,2 C 52 % 1026,4 hPa 0,0 l/m 1,7 km/h (1 Bft) S-SO 157 -0,8 C 8,5 C 2,9 km/h (1 Bft)
18.02.2019 12:34 8,5 C -0,2 C 52 % 1026,4 hPa 0,0 l/m 1,2 km/h (1 Bft) O-NO 67 -0,8 C 8,5 C 6,0 km/h (2 Bft)
18.02.2019 12:32 8,4 C -0,2 C 52 % 1026,4 hPa 0,0 l/m 1,0 km/h (0 Bft) O-SO 112 -0,9 C 8,4 C 3,6 km/h (1 Bft)
18.02.2019 12:30 8,3 C -0,2 C 52 % 1026,4 hPa 0,0 l/m 1,7 km/h (1 Bft) NO 45 -1,0 C 8,3 C 2,7 km/h (1 Bft)
18.02.2019 12:28 8,3 C -0,2 C 52 % 1026,4 hPa 0,0 l/m 2,2 km/h (1 Bft) O-SO 112 -1,0 C 8,3 C 0,0 km/h (0 Bft)
18.02.2019 12:26 8,4 C -0,2 C 52 % 1026,4 hPa 0,0 l/m 2,2 km/h (1 Bft) O-NO 67 -0,9 C 8,4 C 4,1 km/h (1 Bft)
18.02.2019 12:24 8,5 C -0,2 C 52 % 1026,4 hPa 0,0 l/m 1,9 km/h (1 Bft) NO 45 -0,8 C 8,5 C 3,6 km/h (1 Bft)
18.02.2019 12:22 8,6 C -0,2 C 52 % 1026,4 hPa 0,0 l/m 2,2 km/h (1 Bft) S-SO 157 -0,7 C 8,6 C 0,0 km/h (0 Bft)
18.02.2019 12:20 8,6 C -0,2 C 52 % 1026,8 hPa 0,0 l/m 1,9 km/h (1 Bft) N-NO 22 -0,7 C 8,6 C 5,8 km/h (2 Bft)
18.02.2019 12:18 8,6 C -0,2 C 52 % 1026,8 hPa 0,0 l/m 1,2 km/h (1 Bft) O 90 -0,7 C 8,6 C 0,0 km/h (0 Bft)
18.02.2019 12:16 8,6 C -0,2 C 52 % 1026,8 hPa 0,0 l/m 1,0 km/h (0 Bft) S 180 -0,7 C 8,6 C 0,0 km/h (0 Bft)
18.02.2019 12:14 8,5 C -0,2 C 52 % 1026,8 hPa 0,0 l/m 0,7 km/h (0 Bft) S 180 -0,8 C 8,5 C 0,0 km/h (0 Bft)
18.02.2019 12:12 8,5 C -0,2 C 52 % 1026,8 hPa 0,0 l/m 1,0 km/h (0 Bft) NO 45 -0,8 C 8,5 C 4,8 km/h (1 Bft)
18.02.2019 12:10 8,5 C -0,2 C 52 % 1026,8 hPa 0,0 l/m 1,0 km/h (0 Bft) O-SO 112 -0,8 C 8,5 C 2,9 km/h (1 Bft)
18.02.2019 12:08 8,5 C -0,2 C 52 % 1026,8 hPa 0,0 l/m 0,7 km/h (0 Bft) S 180 -0,8 C 8,5 C 0,0 km/h (0 Bft)
18.02.2019 12:06 8,6 C -0,2 C 52 % 1026,8 hPa 0,0 l/m 1,0 km/h (0 Bft) N-NO 22 -0,7 C 8,6 C 0,0 km/h (0 Bft)
18.02.2019 12:04 8,5 C -0,2 C 52 % 1026,8 hPa 0,0 l/m 1,7 km/h (1 Bft) O-NO 67 -0,8 C 8,5 C 5,6 km/h (1 Bft)
18.02.2019 12:02 8,5 C -0,2 C 52 % 1026,8 hPa 0,0 l/m 1,7 km/h (1 Bft) O-NO 67 -0,8 C 8,5 C 5,6 km/h (1 Bft)
18.02.2019 12:00 8,6 C -0,2 C 52 % 1027,2 hPa 0,0 l/m 1,2 km/h (1 Bft) O-NO 67 -0,7 C 8,6 C 2,7 km/h (1 Bft)
18.02.2019 11:58 8,6 C -0,2 C 52 % 1027,2 hPa 0,0 l/m 1,4 km/h (1 Bft) O-NO 67 -0,7 C 8,6 C 3,6 km/h (1 Bft)
18.02.2019 11:56 8,5 C -0,2 C 52 % 1027,2 hPa 0,0 l/m 2,2 km/h (1 Bft) SO 135 -0,8 C 8,5 C 2,9 km/h (1 Bft)
18.02.2019 11:54 8,5 C -0,2 C 52 % 1027,2 hPa 0,0 l/m 1,9 km/h (1 Bft) SO 135 -0,8 C 8,5 C 2,7 km/h (1 Bft)
18.02.2019 11:52 8,3 C -0,2 C 52 % 1027,2 hPa 0,0 l/m 1,9 km/h (1 Bft) O-SO 112 -1,0 C 8,3 C 3,1 km/h (1 Bft)
18.02.2019 11:50 8,5 C -0,2 C 52 % 1027,2 hPa 0,0 l/m 2,2 km/h (1 Bft) SO 135 -0,8 C 8,5 C 0,0 km/h (0 Bft)
18.02.2019 11:48 8,5 C -0,2 C 52 % 1027,2 hPa 0,0 l/m 1,9 km/h (1 Bft) SO 135 -0,8 C 8,5 C 2,7 km/h (1 Bft)
18.02.2019 11:46 8,3 C -0,2 C 53 % 1027,2 hPa 0,0 l/m 1,7 km/h (1 Bft) O-SO 112 -0,7 C 8,3 C 5,3 km/h (1 Bft)
18.02.2019 11:44 8,4 C -0,2 C 53 % 1027,2 hPa 0,0 l/m 1,4 km/h (1 Bft) SO 135 -0,6 C 8,4 C 0,0 km/h (0 Bft)
18.02.2019 11:42 8,4 C -0,2 C 53 % 1027,2 hPa 0,0 l/m 1,7 km/h (1 Bft) SO 135 -0,6 C 8,4 C 2,9 km/h (1 Bft)
18.02.2019 11:40 8,4 C -0,2 C 53 % 1027,2 hPa 0,0 l/m 1,9 km/h (1 Bft) SO 135 -0,6 C 8,4 C 0,0 km/h (0 Bft)
18.02.2019 11:38 8,4 C -0,2 C 53 % 1027,2 hPa 0,0 l/m 2,4 km/h (1 Bft) O-SO 112 -0,6 C 8,4 C 0,0 km/h (0 Bft)
18.02.2019 11:36 8,3 C -0,2 C 53 % 1027,2 hPa 0,0 l/m 2,9 km/h (1 Bft) O-SO 112 -0,7 C 8,3 C 3,6 km/h (1 Bft)
18.02.2019 11:34 8,3 C -0,2 C 53 % 1027,2 hPa 0,0 l/m 2,7 km/h (1 Bft) O-SO 112 -0,7 C 8,3 C 4,3 km/h (1 Bft)
18.02.2019 11:32 8,4 C -0,2 C 52 % 1027,2 hPa 0,0 l/m 2,4 km/h (1 Bft) O-SO 112 -0,9 C 8,4 C 3,4 km/h (1 Bft)
18.02.2019 11:30 8,5 C -0,2 C 52 % 1027,2 hPa 0,0 l/m 1,7 km/h (1 Bft) SO 135 -0,8 C 8,5 C 3,1 km/h (1 Bft)
18.02.2019 11:28 8,5 C -0,2 C 52 % 1027,2 hPa 0,0 l/m 1,2 km/h (1 Bft) O-SO 112 -0,8 C 8,5 C 2,7 km/h (1 Bft)
18.02.2019 11:26 8,4 C -0,2 C 53 % 1027,2 hPa 0,0 l/m 0,7 km/h (0 Bft) O-SO 112 -0,6 C 8,4 C 4,3 km/h (1 Bft)
18.02.2019 11:24 8,2 C -0,2 C 53 % 1027,2 hPa 0,0 l/m 0,5 km/h (0 Bft) O-SO 112 -0,8 C 8,2 C 3,4 km/h (1 Bft)
18.02.2019 11:22 8,3 C -0,2 C 53 % 1027,2 hPa 0,0 l/m 0,0 km/h (0 Bft) SO 135 -0,7 C 8,3 C 2,4 km/h (1 Bft)
18.02.2019 11:20 8,3 C -0,2 C 53 % 1027,1 hPa 0,0 l/m 0,0 km/h (0 Bft) O-SO 112 -0,7 C 8,3 C 0,0 km/h (0 Bft)
18.02.2019 11:18 8,2 C -0,2 C 53 % 1027,1 hPa 0,0 l/m 0,2 km/h (0 Bft) SO 135 -0,8 C 8,2 C 0,0 km/h (0 Bft)
18.02.2019 11:16 8,2 C -0,2 C 53 % 1027,1 hPa 0,0 l/m 0,2 km/h (0 Bft) NO 45 -0,8 C 8,2 C 0,0 km/h (0 Bft)
18.02.2019 11:14 8,3 C -0,2 C 53 % 1027,1 hPa 0,0 l/m 0,2 km/h (0 Bft) SO 135 -0,7 C 8,3 C 0,0 km/h (0 Bft)
18.02.2019 11:12 8,4 C -0,2 C 53 % 1027,1 hPa 0,0 l/m 0,7 km/h (0 Bft) SO 135 -0,6 C 8,4 C 0,0 km/h (0 Bft)
18.02.2019 11:10 8,5 C -0,2 C 54 % 1027,1 hPa 0,0 l/m 1,2 km/h (1 Bft) W 270 -0,3 C 8,5 C 0,0 km/h (0 Bft)
18.02.2019 11:08 8,3 C -0,1 C 54 % 1027,1 hPa 0,0 l/m 1,7 km/h (1 Bft) SO 135 -0,5 C 8,3 C 0,0 km/h (0 Bft)
18.02.2019 11:06 8,2 C -0,1 C 54 % 1027,1 hPa 0,0 l/m 2,7 km/h (1 Bft) SO 135 -0,5 C 8,2 C 0,0 km/h (0 Bft)
18.02.2019 11:04 8,0 C -0,1 C 54 % 1027,1 hPa 0,0 l/m 3,4 km/h (1 Bft) S-SO 157 -0,7 C 8,0 C 0,0 km/h (0 Bft)
18.02.2019 11:02 8,0 C -0,1 C 54 % 1027,1 hPa 0,0 l/m 3,9 km/h (1 Bft) S-SW 202 -0,7 C 8,0 C 3,4 km/h (1 Bft)
18.02.2019 11:00 8,0 C -0,1 C 54 % 1027,0 hPa 0,0 l/m 3,1 km/h (1 Bft) S-SW 202 -0,7 C 8,0 C 3,9 km/h (1 Bft)
18.02.2019 10:58 8,0 C -0,1 C 54 % 1027,0 hPa 0,0 l/m 2,9 km/h (1 Bft) SW 225 -0,7 C 8,0 C 4,3 km/h (1 Bft)
18.02.2019 10:56 7,9 C -0,1 C 54 % 1027,0 hPa 0,0 l/m 2,2 km/h (1 Bft) S 180 -0,8 C 7,9 C 5,1 km/h (1 Bft)
18.02.2019 10:54 7,9 C -0,1 C 54 % 1027,0 hPa 0,0 l/m 1,2 km/h (1 Bft) S-SW 202 -0,8 C 7,9 C 4,3 km/h (1 Bft)
18.02.2019 10:52 8,0 C -0,1 C 54 % 1027,0 hPa 0,0 l/m 0,7 km/h (0 Bft) S 180 -0,7 C 8,0 C 5,1 km/h (1 Bft)
18.02.2019 10:50 7,9 C -0,1 C 54 % 1027,0 hPa 0,0 l/m 0,7 km/h (0 Bft) S 180 -0,8 C 7,9 C 0,0 km/h (0 Bft)
18.02.2019 10:48 7,8 C -0,1 C 54 % 1027,0 hPa 0,0 l/m 1,4 km/h (1 Bft) S-SW 202 -0,9 C 7,8 C 0,0 km/h (0 Bft)
18.02.2019 10:46 7,7 C -0,1 C 54 % 1027,0 hPa 0,0 l/m 2,9 km/h (1 Bft) S-SO 157 -1,0 C 7,7 C 0,0 km/h (0 Bft)
18.02.2019 10:44 7,5 C -0,1 C 54 % 1027,0 hPa 0,0 l/m 3,9 km/h (1 Bft) S-SO 157 -1,2 C 7,5 C 0,0 km/h (0 Bft)
18.02.2019 10:42 7,5 C -0,1 C 54 % 1027,0 hPa 0,0 l/m 4,8 km/h (1 Bft) SW 225 -1,2 C 7,5 C 0,0 km/h (0 Bft)
18.02.2019 10:40 7,4 C -0,1 C 54 % 1027,2 hPa 0,0 l/m 6,5 km/h (2 Bft) W-SW 247 -1,3 C 7,3 C 3,1 km/h (1 Bft)
18.02.2019 10:38 7,3 C -0,1 C 54 % 1027,2 hPa 0,0 l/m 8,0 km/h (2 Bft) SW 225 -1,4 C 6,0 C 6,0 km/h (2 Bft)
18.02.2019 10:36 7,2 C -0,1 C 54 % 1027,2 hPa 0,0 l/m 8,0 km/h (2 Bft) S 180 -1,5 C 5,9 C 8,4 km/h (2 Bft)
18.02.2019 10:34 7,1 C -0,1 C 54 % 1027,2 hPa 0,0 l/m 8,4 km/h (2 Bft) S-SW 202 -1,6 C 5,5 C 6,8 km/h (2 Bft)
18.02.2019 10:32 7,0 C 0,0 C 54 % 1027,2 hPa 0,0 l/m 9,2 km/h (2 Bft) W-SW 247 -1,7 C 4,8 C 7,7 km/h (2 Bft)
18.02.2019 10:30 6,9 C 0,0 C 54 % 1027,2 hPa 0,0 l/m 9,7 km/h (2 Bft) SW 225 -1,8 C 4,4 C 10,1 km/h (2 Bft)
18.02.2019 10:28 6,9 C -0,1 C 55 % 1027,2 hPa 0,0 l/m 9,9 km/h (2 Bft) S-SW 202 -1,5 C 4,2 C 9,4 km/h (2 Bft)
18.02.2019 10:26 6,7 C 0,0 C 55 % 1027,2 hPa 0,0 l/m 10,1 km/h (2 Bft) SW 225 -1,7 C 3,9 C 8,7 km/h (2 Bft)
18.02.2019 10:24 6,5 C 0,0 C 55 % 1027,2 hPa 0,0 l/m 10,9 km/h (2 Bft) W-SW 247 -1,9 C 3,1 C 11,3 km/h (2 Bft)
18.02.2019 10:22 6,4 C 0,0 C 55 % 1027,2 hPa 0,0 l/m 11,3 km/h (2 Bft) SW 225 -2,0 C 2,8 C 9,7 km/h (2 Bft)
18.02.2019 10:20 6,4 C 0,0 C 55 % 1027,5 hPa 0,0 l/m 11,8 km/h (2 Bft) S-SW 202 -2,0 C 2,5 C 12,6 km/h (3 Bft)
18.02.2019 10:18 6,3 C 0,0 C 55 % 1027,5 hPa 0,0 l/m 11,8 km/h (2 Bft) SW 225 -2,1 C 2,4 C 11,3 km/h (2 Bft)
18.02.2019 10:16 6,1 C 0,0 C 55 % 1027,5 hPa 0,0 l/m 12,6 km/h (3 Bft) SW 225 -2,2 C 1,7 C 12,8 km/h (3 Bft)
18.02.2019 10:14 6,0 C 0,0 C 55 % 1027,5 hPa 0,0 l/m 12,8 km/h (3 Bft) S-SW 202 -2,3 C 1,4 C 12,1 km/h (2 Bft)
18.02.2019 10:12 5,9 C 0,0 C 57 % 1027,5 hPa 0,0 l/m 13,3 km/h (3 Bft) SW 225 -2,0 C 1,1 C 15,2 km/h (3 Bft)
18.02.2019 10:10 5,9 C 0,0 C 57 % 1027,5 hPa 0,0 l/m 13,3 km/h (3 Bft) SW 225 -2,0 C 1,1 C 13,0 km/h (3 Bft)
18.02.2019 10:08 5,7 C -0,1 C 57 % 1027,5 hPa 0,0 l/m 13,8 km/h (3 Bft) SW 225 -2,1 C 0,5 C 11,6 km/h (2 Bft)
18.02.2019 10:06 5,4 C -0,1 C 57 % 1027,5 hPa 0,0 l/m 14,0 km/h (3 Bft) S 180 -2,4 C 0,1 C 13,3 km/h (3 Bft)
18.02.2019 10:04 5,5 C -0,1 C 58 % 1027,5 hPa 0,0 l/m 14,0 km/h (3 Bft) SW 225 -2,1 C 0,2 C 15,4 km/h (3 Bft)
18.02.2019 10:02 5,4 C -0,1 C 58 % 1027,5 hPa 0,0 l/m 14,2 km/h (3 Bft) SW 225 -2,2 C -0,0 C 12,3 km/h (3 Bft)
18.02.2019 10:00 5,1 C -0,1 C 58 % 1027,5 hPa 0,0 l/m 14,2 km/h (3 Bft) S-SW 202 -2,5 C -0,4 C 13,5 km/h (3 Bft)
18.02.2019 09:58 5,0 C -0,1 C 58 % 1027,5 hPa 0,0 l/m 14,2 km/h (3 Bft) W-SW 247 -2,6 C -0,5 C 15,9 km/h (3 Bft)
18.02.2019 09:56 4,9 C -0,1 C 58 % 1027,5 hPa 0,0 l/m 14,5 km/h (3 Bft) SW 225 -2,7 C -0,8 C 15,0 km/h (3 Bft)
18.02.2019 09:54 4,6 C -0,1 C 58 % 1027,5 hPa 0,0 l/m 14,2 km/h (3 Bft) SW 225 -2,9 C -1,0 C 15,0 km/h (3 Bft)
18.02.2019 09:52 4,6 C -0,2 C 58 % 1027,5 hPa 0,0 l/m 14,5 km/h (3 Bft) SW 225 -2,9 C -1,1 C 19,8 km/h (3 Bft)
18.02.2019 09:50 4,6 C -0,1 C 58 % 1027,5 hPa 0,0 l/m 14,5 km/h (3 Bft) S-SW 202 -2,9 C -1,1 C 14,7 km/h (3 Bft)
18.02.2019 09:48 4,4 C -0,2 C 58 % 1027,5 hPa 0,0 l/m 14,7 km/h (3 Bft) S 180 -3,1 C -1,5 C 15,0 km/h (3 Bft)
18.02.2019 09:46 4,4 C -0,2 C 58 % 1027,5 hPa 0,0 l/m 14,7 km/h (3 Bft) S 180 -3,1 C -1,5 C 19,3 km/h (3 Bft)
18.02.2019 09:44 4,2 C -0,2 C 58 % 1027,5 hPa 0,0 l/m 15,0 km/h (3 Bft) S-SW 202 -3,3 C -1,9 C 13,0 km/h (3 Bft)
18.02.2019 09:42 4,5 C -0,2 C 58 % 1027,5 hPa 0,0 l/m 15,2 km/h (3 Bft) N-NO 22 -3,0 C -1,6 C 17,9 km/h (3 Bft)
18.02.2019 09:40 4,5 C -0,2 C 58 % 1027,5 hPa 0,0 l/m 15,9 km/h (3 Bft) S-SW 202 -3,0 C -2,0 C 15,2 km/h (3 Bft)
18.02.2019 09:38 4,5 C -0,2 C 58 % 1027,5 hPa 0,0 l/m 15,7 km/h (3 Bft) S-SW 202 -3,0 C -1,9 C 14,7 km/h (3 Bft)
18.02.2019 09:36 4,4 C -0,2 C 58 % 1027,5 hPa 0,0 l/m 16,2 km/h (3 Bft) W-SW 247 -3,1 C -2,3 C 15,9 km/h (3 Bft)
18.02.2019 09:34 4,4 C -0,2 C 58 % 1027,5 hPa 0,0 l/m 15,9 km/h (3 Bft) W-SW 247 -3,1 C -2,1 C 18,1 km/h (3 Bft)
18.02.2019 09:32 4,4 C -0,2 C 59 % 1027,5 hPa 0,0 l/m 15,9 km/h (3 Bft) SW 225 -2,9 C -2,1 C 17,6 km/h (3 Bft)
18.02.2019 09:30 4,3 C -0,2 C 59 % 1027,5 hPa 0,0 l/m 15,9 km/h (3 Bft) SW 225 -3,0 C -2,2 C 18,1 km/h (3 Bft)
18.02.2019 09:28 4,3 C -0,3 C 59 % 1027,5 hPa 0,0 l/m 16,2 km/h (3 Bft) SW 225 -3,0 C -2,4 C 14,2 km/h (3 Bft)
18.02.2019 09:26 4,2 C -0,3 C 59 % 1027,5 hPa 0,0 l/m 16,4 km/h (3 Bft) S-SW 202 -3,1 C -2,6 C 17,9 km/h (3 Bft)
18.02.2019 09:24 4,0 C -0,3 C 60 % 1027,5 hPa 0,0 l/m 16,7 km/h (3 Bft) W-SW 247 -3,0 C -3,0 C 17,4 km/h (3 Bft)
18.02.2019 09:22 3,8 C -0,4 C 60 % 1027,5 hPa 0,0 l/m 16,9 km/h (3 Bft) S 180 -3,2 C -3,3 C 17,1 km/h (3 Bft)
18.02.2019 09:20 3,7 C -0,4 C 60 % 1027,0 hPa 0,0 l/m 16,9 km/h (3 Bft) S 180 -3,3 C -3,5 C 17,9 km/h (3 Bft)
18.02.2019 09:18 3,6 C -0,4 C 60 % 1027,0 hPa 0,0 l/m 17,1 km/h (3 Bft) SW 225 -3,4 C -3,7 C 19,3 km/h (3 Bft)
18.02.2019 09:16 3,4 C -0,4 C 60 % 1027,0 hPa 0,0 l/m 17,1 km/h (3 Bft) SW 225 -3,6 C -3,9 C 20,3 km/h (4 Bft)
18.02.2019 09:14 3,3 C -0,5 C 61 % 1027,0 hPa 0,0 l/m 16,7 km/h (3 Bft) SW 225 -3,5 C -3,9 C 19,6 km/h (3 Bft)
18.02.2019 09:12 3,2 C -0,5 C 61 % 1027,0 hPa 0,0 l/m 16,2 km/h (3 Bft) S-SW 202 -3,6 C -3,7 C 16,7 km/h (3 Bft)
18.02.2019 09:10 2,9 C -0,7 C 62 % 1027,0 hPa 0,0 l/m 15,9 km/h (3 Bft) SW 225 -3,6 C -4,0 C 18,1 km/h (3 Bft)
18.02.2019 09:08 2,8 C -0,7 C 62 % 1027,0 hPa 0,0 l/m 16,2 km/h (3 Bft) SW 225 -3,7 C -4,2 C 17,6 km/h (3 Bft)
18.02.2019 09:06 2,7 C -0,7 C 62 % 1027,0 hPa 0,0 l/m 15,9 km/h (3 Bft) S-SW 202 -3,8 C -4,2 C 18,8 km/h (3 Bft)
18.02.2019 09:04 2,5 C -0,6 C 62 % 1027,0 hPa 0,0 l/m 16,7 km/h (3 Bft) S-SW 202 -4,0 C -4,9 C 15,2 km/h (3 Bft)
18.02.2019 09:02 2,4 C -0,8 C 62 % 1027,0 hPa 0,0 l/m 17,4 km/h (3 Bft) SW 225 -4,1 C -5,3 C 18,8 km/h (3 Bft)
18.02.2019 09:00 2,1 C -0,8 C 62 % 1027,6 hPa 0,0 l/m 17,6 km/h (3 Bft) W-SW 247 -4,4 C -5,8 C 16,4 km/h (3 Bft)
18.02.2019 08:58 2,0 C -0,8 C 62 % 1027,6 hPa 0,0 l/m 18,1 km/h (3 Bft) N 360 -4,5 C -6,2 C 19,1 km/h (3 Bft)
18.02.2019 08:56 1,9 C -0,8 C 62 % 1027,6 hPa 0,0 l/m 18,1 km/h (3 Bft) SW 225 -4,6 C -6,3 C 17,6 km/h (3 Bft)
18.02.2019 08:54 2,0 C -0,8 C 62 % 1027,6 hPa 0,0 l/m 17,4 km/h (3 Bft) SW 225 -4,5 C -5,8 C 21,2 km/h (4 Bft)
18.02.2019 08:52 1,9 C -0,9 C 63 % 1027,6 hPa 0,0 l/m 17,1 km/h (3 Bft) SW 225 -4,4 C -5,8 C 17,4 km/h (3 Bft)
18.02.2019 08:50 1,9 C -0,9 C 63 % 1027,6 hPa 0,0 l/m 16,7 km/h (3 Bft) W-SW 247 -4,4 C -5,6 C 17,4 km/h (3 Bft)
18.02.2019 08:48 1,9 C -0,9 C 63 % 1027,6 hPa 0,0 l/m 16,4 km/h (3 Bft) SW 225 -4,4 C -5,4 C 18,8 km/h (3 Bft)
18.02.2019 08:46 1,9 C -0,9 C 63 % 1027,6 hPa 0,0 l/m 16,7 km/h (3 Bft) W-SW 247 -4,4 C -5,6 C 15,9 km/h (3 Bft)
18.02.2019 08:44 1,8 C -1,0 C 63 % 1027,6 hPa 0,0 l/m 17,4 km/h (3 Bft) SW 225 -4,5 C -6,1 C 15,4 km/h (3 Bft)
18.02.2019 08:42 1,5 C -1,0 C 63 % 1027,6 hPa 0,0 l/m 17,9 km/h (3 Bft) W-SW 247 -4,8 C -6,7 C 16,4 km/h (3 Bft)
18.02.2019 08:40 1,5 C -1,0 C 63 % 1027,6 hPa 0,0 l/m 18,3 km/h (3 Bft) SW 225 -4,8 C -6,9 C 18,6 km/h (3 Bft)
18.02.2019 08:38 1,4 C -1,0 C 63 % 1027,6 hPa 0,0 l/m 18,8 km/h (3 Bft) SW 225 -4,9 C -7,3 C 17,1 km/h (3 Bft)
18.02.2019 08:36 1,4 C -1,0 C 63 % 1027,6 hPa 0,0 l/m 18,8 km/h (3 Bft) SW 225 -4,9 C -7,3 C 19,8 km/h (3 Bft)
18.02.2019 08:34 1,3 C -1,0 C 63 % 1027,6 hPa 0,0 l/m 18,6 km/h (3 Bft) SW 225 -5,0 C -7,3 C 22,0 km/h (4 Bft)
18.02.2019 08:32 1,3 C -1,2 C 64 % 1027,6 hPa 0,0 l/m 18,6 km/h (3 Bft) W-SW 247 -4,7 C -7,3 C 18,8 km/h (3 Bft)
18.02.2019 08:30 1,1 C -1,1 C 64 % 1027,6 hPa 0,0 l/m 18,3 km/h (3 Bft) SO 135 -4,9 C -7,4 C 22,4 km/h (4 Bft)
18.02.2019 08:28 0,9 C -1,1 C 65 % 1027,6 hPa 0,0 l/m 18,1 km/h (3 Bft) W-SW 247 -4,9 C -7,6 C 18,8 km/h (3 Bft)
18.02.2019 08:26 0,8 C -1,3 C 65 % 1027,6 hPa 0,0 l/m 18,3 km/h (3 Bft) SW 225 -5,0 C -7,8 C 18,1 km/h (3 Bft)
18.02.2019 08:24 0,7 C -1,3 C 65 % 1027,6 hPa 0,0 l/m 18,6 km/h (3 Bft) SW 225 -5,1 C -8,1 C 17,9 km/h (3 Bft)
18.02.2019 08:22 0,6 C -1,3 C 66 % 1027,6 hPa 0,0 l/m 18,8 km/h (3 Bft) SW 225 -5,0 C -8,3 C 22,7 km/h (4 Bft)
18.02.2019 08:20 0,6 C -1,3 C 66 % 1027,8 hPa 0,0 l/m 18,3 km/h (3 Bft) S-SW 202 -5,0 C -8,0 C 19,8 km/h (3 Bft)
18.02.2019 08:18 0,3 C -1,4 C 66 % 1027,8 hPa 0,0 l/m 18,1 km/h (3 Bft) SW 225 -5,3 C -8,3 C 20,3 km/h (4 Bft)
18.02.2019 08:16 0,2 C -1,4 C 67 % 1027,8 hPa 0,0 l/m 17,9 km/h (3 Bft) S-SW 202 -5,2 C -8,3 C 19,1 km/h (3 Bft)
18.02.2019 08:14 0,1 C -1,4 C 67 % 1027,8 hPa 0,0 l/m 17,4 km/h (3 Bft) S-SW 202 -5,3 C -8,2 C 21,0 km/h (4 Bft)
18.02.2019 08:12 0,1 C -1,4 C 67 % 1027,8 hPa 0,0 l/m 16,7 km/h (3 Bft) S-SW 202 -5,3 C -7,8 C 20,0 km/h (4 Bft)
18.02.2019 08:10 0,1 C -1,4 C 67 % 1027,8 hPa 0,0 l/m 16,7 km/h (3 Bft) SW 225 -5,3 C -7,8 C 18,3 km/h (3 Bft)
18.02.2019 08:08 -0,1 C -1,5 C 67 % 1027,8 hPa 0,0 l/m 16,7 km/h (3 Bft) SO 135 -5,5 C -8,1 C 16,7 km/h (3 Bft)
18.02.2019 08:06 -0,2 C -1,5 C 67 % 1027,8 hPa 0,0 l/m 16,9 km/h (3 Bft) SW 225 -5,6 C -8,3 C 19,6 km/h (3 Bft)
18.02.2019 08:04 -0,3 C -1,5 C 67 % 1027,8 hPa 0,0 l/m 16,9 km/h (3 Bft) W-SW 247 -5,7 C -8,4 C 17,1 km/h (3 Bft)
18.02.2019 08:02 -0,5 C -1,5 C 67 % 1027,8 hPa 0,0 l/m 17,1 km/h (3 Bft) SW 225 -5,9 C -8,8 C 17,1 km/h (3 Bft)
18.02.2019 08:00 -0,6 C -1,5 C 67 % 1027,5 hPa 0,0 l/m 17,6 km/h (3 Bft) SW 225 -6,0 C -9,2 C 17,9 km/h (3 Bft)
18.02.2019 07:58 -0,9 C -1,5 C 67 % 1027,5 hPa 0,0 l/m 18,3 km/h (3 Bft) S 180 -6,2 C -9,9 C 18,8 km/h (3 Bft)
18.02.2019 07:56 -1,0 C -1,5 C 67 % 1027,5 hPa 0,0 l/m 18,6 km/h (3 Bft) SW 225 -6,3 C -10,2 C 17,9 km/h (3 Bft)
18.02.2019 07:54 -1,0 C -1,5 C 67 % 1027,5 hPa 0,0 l/m 18,8 km/h (3 Bft) SW 225 -6,3 C -10,3 C 18,6 km/h (3 Bft)
18.02.2019 07:52 -1,0 C -1,5 C 67 % 1027,5 hPa 0,0 l/m 19,1 km/h (3 Bft) SW 225 -6,3 C -10,5 C 18,3 km/h (3 Bft)
18.02.2019 07:50 -1,0 C -1,5 C 67 % 1027,5 hPa 0,0 l/m 19,3 km/h (3 Bft) S 180 -6,3 C -10,6 C 19,8 km/h (3 Bft)
18.02.2019 07:48 -0,9 C -1,5 C 67 % 1027,5 hPa 0,0 l/m 18,8 km/h (3 Bft) SW 225 -6,2 C -10,2 C 20,5 km/h (4 Bft)
18.02.2019 07:46 -0,9 C -1,5 C 67 % 1027,5 hPa 0,0 l/m 18,8 km/h (3 Bft) S 180 -6,2 C -10,2 C 18,3 km/h (3 Bft)
18.02.2019 07:44 -0,7 C -1,5 C 67 % 1027,5 hPa 0,0 l/m 18,3 km/h (3 Bft) S-SW 202 -6,0 C -9,7 C 20,5 km/h (4 Bft)
18.02.2019 07:42 -0,7 C -1,5 C 67 % 1027,5 hPa 0,0 l/m 17,6 km/h (3 Bft) S-SW 202 -6,0 C -9,3 C 20,0 km/h (4 Bft)
18.02.2019 07:40 -1,0 C -1,5 C 67 % 1027,6 hPa 0,0 l/m 17,1 km/h (3 Bft) S 180 -6,3 C -9,4 C 19,1 km/h (3 Bft)
18.02.2019 07:38 -0,9 C -1,5 C 67 % 1027,6 hPa 0,0 l/m 16,9 km/h (3 Bft) SW 225 -6,2 C -9,2 C 19,3 km/h (3 Bft)
18.02.2019 07:36 -0,7 C -1,5 C 67 % 1027,6 hPa 0,0 l/m 16,4 km/h (3 Bft) W-SW 247 -6,0 C -8,7 C 21,5 km/h (4 Bft)
18.02.2019 07:34 -0,7 C -1,5 C 67 % 1027,6 hPa 0,0 l/m 16,7 km/h (3 Bft) S-SW 202 -6,0 C -8,8 C 19,8 km/h (3 Bft)
18.02.2019 07:32 -0,7 C -1,5 C 67 % 1027,6 hPa 0,0 l/m 16,4 km/h (3 Bft) SW 225 -6,0 C -8,7 C 16,2 km/h (3 Bft)
18.02.2019 07:30 -0,5 C -1,5 C 67 % 1027,6 hPa 0,0 l/m 16,4 km/h (3 Bft) W-SW 247 -5,9 C -8,4 C 16,2 km/h (3 Bft)
18.02.2019 07:28 -0,6 C -1,5 C 67 % 1027,6 hPa 0,0 l/m 16,4 km/h (3 Bft) SW 225 -6,0 C -8,5 C 16,7 km/h (3 Bft)
18.02.2019 07:26 -0,5 C -1,5 C 68 % 1027,6 hPa 0,0 l/m 16,2 km/h (3 Bft) SW 225 -5,7 C -8,3 C 15,4 km/h (3 Bft)
18.02.2019 07:24 -0,9 C -1,5 C 68 % 1027,6 hPa 0,0 l/m 15,7 km/h (3 Bft) SW 225 -6,0 C -8,5 C 19,6 km/h (3 Bft)
18.02.2019 07:22 -0,7 C -1,4 C 68 % 1027,6 hPa 0,0 l/m 15,9 km/h (3 Bft) S 180 -5,9 C -8,4 C 19,6 km/h (3 Bft)
18.02.2019 07:20 -0,5 C -1,4 C 68 % 1027,6 hPa 0,0 l/m 15,7 km/h (3 Bft) W-SW 247 -5,7 C -8,0 C 20,0 km/h (4 Bft)
18.02.2019 07:18 -0,9 C -1,5 C 68 % 1027,6 hPa 0,0 l/m 15,4 km/h (3 Bft) SW 225 -6,0 C -8,3 C 18,1 km/h (3 Bft)
18.02.2019 07:16 -0,9 C -1,4 C 68 % 1027,6 hPa 0,0 l/m 15,2 km/h (3 Bft) S-SW 202 -6,0 C -8,2 C 14,5 km/h (3 Bft)
18.02.2019 07:14 -0,4 C -1,5 C 68 % 1027,6 hPa 0,0 l/m 15,7 km/h (3 Bft) SW 225 -5,6 C -7,9 C 15,2 km/h (3 Bft)
18.02.2019 07:12 -0,9 C -1,5 C 68 % 1027,6 hPa 0,0 l/m 15,7 km/h (3 Bft) W-SW 247 -6,0 C -8,5 C 20,0 km/h (4 Bft)
18.02.2019 07:10 -1,1 C -1,5 C 68 % 1027,6 hPa 0,0 l/m 16,4 km/h (3 Bft) W-SW 247 -6,2 C -9,2 C 21,0 km/h (4 Bft)
18.02.2019 07:08 -1,4 C -1,5 C 68 % 1027,6 hPa 0,0 l/m 16,4 km/h (3 Bft) W-SW 247 -6,5 C -9,5 C 20,0 km/h (4 Bft)
18.02.2019 07:06 -1,5 C -1,5 C 68 % 1027,6 hPa 0,0 l/m 16,9 km/h (3 Bft) SW 225 -6,6 C -9,9 C 14,5 km/h (3 Bft)
18.02.2019 07:04 -1,5 C -1,5 C 68 % 1027,6 hPa 0,0 l/m 17,6 km/h (3 Bft) S-SW 202 -6,6 C -10,3 C 16,9 km/h (3 Bft)
18.02.2019 07:02 -1,5 C -1,5 C 68 % 1027,6 hPa 0,0 l/m 17,4 km/h (3 Bft) NW 315 -6,6 C -10,2 C 18,1 km/h (3 Bft)
18.02.2019 07:00 -1,5 C -1,5 C 68 % 1027,4 hPa 0,0 l/m 17,1 km/h (3 Bft) S-SW 202 -6,6 C -10,0 C 20,0 km/h (4 Bft)
18.02.2019 06:58 -1,5 C -1,4 C 68 % 1027,4 hPa 0,0 l/m 16,9 km/h (3 Bft) SW 225 -6,6 C -9,9 C 18,6 km/h (3 Bft)
18.02.2019 06:56 -1,4 C -1,4 C 68 % 1027,4 hPa 0,0 l/m 17,1 km/h (3 Bft) SW 225 -6,5 C -9,9 C 19,1 km/h (3 Bft)
18.02.2019 06:54 -1,4 C -1,4 C 68 % 1027,4 hPa 0,0 l/m 17,1 km/h (3 Bft) S 180 -6,5 C -9,9 C 20,0 km/h (4 Bft)
18.02.2019 06:52 -1,3 C -1,4 C 68 % 1027,4 hPa 0,0 l/m 17,4 km/h (3 Bft) S 180 -6,4 C -10,0 C 16,7 km/h (3 Bft)
18.02.2019 06:50 -1,3 C -1,5 C 68 % 1027,4 hPa 0,0 l/m 17,6 km/h (3 Bft) W-SW 247 -6,4 C -10,1 C 17,4 km/h (3 Bft)
18.02.2019 06:48 -1,4 C -1,5 C 68 % 1027,4 hPa 0,0 l/m 18,1 km/h (3 Bft) S-SW 202 -6,5 C -10,5 C 18,6 km/h (3 Bft)
18.02.2019 06:46 -1,4 C -1,4 C 68 % 1027,4 hPa 0,0 l/m 18,1 km/h (3 Bft) S-SW 202 -6,5 C -10,5 C 20,0 km/h (4 Bft)
18.02.2019 06:44 -1,4 C -1,4 C 68 % 1027,4 hPa 0,0 l/m 18,1 km/h (3 Bft) S 180 -6,5 C -10,5 C 18,8 km/h (3 Bft)
18.02.2019 06:42 -1,4 C -1,4 C 68 % 1027,4 hPa 0,0 l/m 18,1 km/h (3 Bft) S 180 -6,5 C -10,5 C 19,1 km/h (3 Bft)
18.02.2019 06:40 -1,5 C -1,4 C 68 % 1027,6 hPa 0,0 l/m 17,9 km/h (3 Bft) W-SW 247 -6,6 C -10,5 C 18,8 km/h (3 Bft)
18.02.2019 06:38 -1,4 C -1,4 C 68 % 1027,6 hPa 0,0 l/m 17,9 km/h (3 Bft) SW 225 -6,5 C -10,4 C 20,8 km/h (4 Bft)
18.02.2019 06:36 -1,4 C -1,5 C 68 % 1027,6 hPa 0,0 l/m 17,6 km/h (3 Bft) S-SW 202 -6,5 C -10,2 C 19,3 km/h (3 Bft)
18.02.2019 06:34 -1,4 C -1,5 C 68 % 1027,6 hPa 0,0 l/m 18,1 km/h (3 Bft) S 180 -6,5 C -10,5 C 17,9 km/h (3 Bft)
18.02.2019 06:32 -1,4 C -1,5 C 68 % 1027,6 hPa 0,0 l/m 18,3 km/h (3 Bft) SW 225 -6,5 C -10,6 C 18,8 km/h (3 Bft)
18.02.2019 06:30 -1,4 C -1,4 C 68 % 1027,6 hPa 0,0 l/m 18,8 km/h (3 Bft) S 180 -6,5 C -10,8 C 16,4 km/h (3 Bft)
18.02.2019 06:28 -1,4 C -1,5 C 68 % 1027,6 hPa 0,0 l/m 19,3 km/h (3 Bft) S 180 -6,5 C -11,1 C 19,3 km/h (3 Bft)
18.02.2019 06:26 -1,4 C -1,5 C 68 % 1027,6 hPa 0,0 l/m 19,8 km/h (3 Bft) SW 225 -6,5 C -11,3 C 17,1 km/h (3 Bft)
18.02.2019 06:24 -1,4 C -1,5 C 68 % 1027,6 hPa 0,0 l/m 20,0 km/h (4 Bft) SW 225 -6,5 C -11,4 C 21,5 km/h (4 Bft)
18.02.2019 06:22 -1,4 C -1,5 C 68 % 1027,6 hPa 0,0 l/m 19,8 km/h (3 Bft) SW 225 -6,5 C -11,3 C 20,0 km/h (4 Bft)
18.02.2019 06:20 -1,4 C -1,5 C 67 % 1027,6 hPa 0,0 l/m 19,3 km/h (3 Bft) W-SW 247 -6,7 C -11,1 C 19,8 km/h (3 Bft)
18.02.2019 06:18 -1,3 C -1,5 C 67 % 1027,6 hPa 0,0 l/m 19,3 km/h (3 Bft) S-SW 202 -6,6 C -11,0 C 21,0 km/h (4 Bft)
18.02.2019 06:16 -1,3 C -1,5 C 67 % 1027,6 hPa 0,0 l/m 19,1 km/h (3 Bft) SW 225 -6,6 C -10,9 C 22,9 km/h (4 Bft)
18.02.2019 06:14 -1,3 C -1,5 C 67 % 1027,6 hPa 0,0 l/m 18,1 km/h (3 Bft) SW 225 -6,6 C -10,3 C 19,3 km/h (3 Bft)
18.02.2019 06:12 -1,2 C -1,5 C 67 % 1027,6 hPa 0,0 l/m 17,9 km/h (3 Bft) S-SW 202 -6,5 C -10,1 C 19,6 km/h (3 Bft)
18.02.2019 06:10 -1,2 C -1,5 C 67 % 1027,6 hPa 0,0 l/m 17,4 km/h (3 Bft) SW 225 -6,5 C -9,8 C 17,6 km/h (3 Bft)
18.02.2019 06:08 -1,2 C -1,4 C 67 % 1027,6 hPa 0,0 l/m 17,1 km/h (3 Bft) S-SW 202 -6,5 C -9,7 C 19,1 km/h (3 Bft)
18.02.2019 06:06 -1,2 C -1,5 C 67 % 1027,6 hPa 0,0 l/m 16,9 km/h (3 Bft) SW 225 -6,5 C -9,6 C 20,5 km/h (4 Bft)
18.02.2019 06:04 -1,2 C -1,4 C 67 % 1027,6 hPa 0,0 l/m 16,9 km/h (3 Bft) S-SW 202 -6,5 C -9,6 C 17,1 km/h (3 Bft)
18.02.2019 06:02 -1,2 C -1,4 C 67 % 1027,6 hPa 0,0 l/m 16,9 km/h (3 Bft) S-SW 202 -6,5 C -9,6 C 17,1 km/h (3 Bft)
18.02.2019 06:00 -1,2 C -1,4 C 67 % 1027,8 hPa 0,0 l/m 16,9 km/h (3 Bft) SW 225 -6,5 C -9,6 C 17,1 km/h (3 Bft)
18.02.2019 05:58 -1,2 C -1,4 C 67 % 1027,8 hPa 0,0 l/m 17,1 km/h (3 Bft) SW 225 -6,5 C -9,7 C 17,4 km/h (3 Bft)
18.02.2019 05:56 -1,0 C -1,4 C 67 % 1027,8 hPa 0,0 l/m 17,4 km/h (3 Bft) SW 225 -6,3 C -9,6 C 19,3 km/h (3 Bft)
18.02.2019 05:54 -1,0 C -1,4 C 66 % 1027,8 hPa 0,0 l/m 17,1 km/h (3 Bft) SW 225 -6,5 C -9,4 C 19,3 km/h (3 Bft)
18.02.2019 05:52 -1,0 C -1,4 C 66 % 1027,8 hPa 0,0 l/m 16,4 km/h (3 Bft) SW 225 -6,5 C -9,0 C 17,6 km/h (3 Bft)
18.02.2019 05:50 -0,9 C -1,4 C 66 % 1027,8 hPa 0,0 l/m 16,2 km/h (3 Bft) SW 225 -6,4 C -8,8 C 18,1 km/h (3 Bft)
18.02.2019 05:48 -0,7 C -1,3 C 66 % 1027,8 hPa 0,0 l/m 15,9 km/h (3 Bft) S-SW 202 -6,2 C -8,4 C 19,1 km/h (3 Bft)
18.02.2019 05:46 -0,7 C -1,4 C 66 % 1027,8 hPa 0,0 l/m 15,4 km/h (3 Bft) SW 225 -6,2 C -8,1 C 17,6 km/h (3 Bft)
18.02.2019 05:44 -0,6 C -1,4 C 66 % 1027,8 hPa 0,0 l/m 15,7 km/h (3 Bft) SW 225 -6,1 C -8,1 C 15,9 km/h (3 Bft)
18.02.2019 05:42 -0,3 C -1,4 C 66 % 1027,8 hPa 0,0 l/m 15,7 km/h (3 Bft) SW 225 -5,9 C -7,8 C 14,2 km/h (3 Bft)
18.02.2019 05:40 -0,1 C -1,4 C 66 % 1027,8 hPa 0,0 l/m 15,9 km/h (3 Bft) SW 225 -5,7 C -7,6 C 15,9 km/h (3 Bft)
18.02.2019 05:38 -0,1 C -1,4 C 67 % 1027,8 hPa 0,0 l/m 16,2 km/h (3 Bft) SW 225 -5,5 C -7,8 C 16,2 km/h (3 Bft)
18.02.2019 05:36 -0,1 C -1,4 C 67 % 1027,8 hPa 0,0 l/m 15,9 km/h (3 Bft) S-SW 202 -5,5 C -7,6 C 21,2 km/h (4 Bft)
18.02.2019 05:34 -0,5 C -1,4 C 67 % 1027,8 hPa 0,0 l/m 15,4 km/h (3 Bft) SW 225 -5,9 C -7,8 C 20,0 km/h (4 Bft)
18.02.2019 05:32 -0,9 C -1,4 C 67 % 1027,8 hPa 0,0 l/m 15,4 km/h (3 Bft) SW 225 -6,2 C -8,3 C 16,9 km/h (3 Bft)
18.02.2019 05:30 -0,9 C -1,4 C 67 % 1027,8 hPa 0,0 l/m 15,7 km/h (3 Bft) SW 225 -6,2 C -8,5 C 15,9 km/h (3 Bft)
18.02.2019 05:28 -0,9 C -1,4 C 67 % 1027,8 hPa 0,0 l/m 15,9 km/h (3 Bft) S-SW 202 -6,2 C -8,6 C 17,4 km/h (3 Bft)
18.02.2019 05:26 -0,9 C -1,4 C 66 % 1027,8 hPa 0,0 l/m 16,2 km/h (3 Bft) SW 225 -6,4 C -8,8 C 15,7 km/h (3 Bft)
18.02.2019 05:24 -0,7 C -1,4 C 66 % 1027,8 hPa 0,0 l/m 16,4 km/h (3 Bft) SW 225 -6,2 C -8,7 C 15,4 km/h (3 Bft)
18.02.2019 05:22 -0,7 C -1,4 C 66 % 1027,8 hPa 0,0 l/m 16,7 km/h (3 Bft) W-SW 247 -6,2 C -8,8 C 17,6 km/h (3 Bft)
18.02.2019 05:20 -0,7 C -1,3 C 66 % 1027,9 hPa 0,0 l/m 16,9 km/h (3 Bft) S-SW 202 -6,2 C -8,9 C 17,9 km/h (3 Bft)
18.02.2019 05:18 -0,7 C -1,3 C 66 % 1027,9 hPa 0,0 l/m 16,7 km/h (3 Bft) W-SW 247 -6,2 C -8,8 C 16,7 km/h (3 Bft)
18.02.2019 05:16 -0,6 C -1,4 C 66 % 1027,9 hPa 0,0 l/m 17,1 km/h (3 Bft) SW 225 -6,1 C -8,9 C 18,3 km/h (3 Bft)
18.02.2019 05:14 -0,7 C -1,4 C 66 % 1027,9 hPa 0,0 l/m 17,1 km/h (3 Bft) SW 225 -6,2 C -9,1 C 18,6 km/h (3 Bft)
18.02.2019 05:12 -0,7 C -1,4 C 66 % 1027,9 hPa 0,0 l/m 16,9 km/h (3 Bft) SO 135 -6,2 C -8,9 C 21,7 km/h (4 Bft)
18.02.2019 05:10 -0,7 C -1,3 C 66 % 1027,9 hPa 0,0 l/m 16,4 km/h (3 Bft) S-SW 202 -6,2 C -8,7 C 18,1 km/h (3 Bft)
18.02.2019 05:08 -0,7 C -1,3 C 66 % 1027,9 hPa 0,0 l/m 16,2 km/h (3 Bft) S-SW 202 -6,2 C -8,5 C 17,4 km/h (3 Bft)
18.02.2019 05:06 -0,6 C -1,3 C 66 % 1027,9 hPa 0,0 l/m 15,7 km/h (3 Bft) SW 225 -6,1 C -8,1 C 19,3 km/h (3 Bft)
18.02.2019 05:04 -0,6 C -1,3 C 66 % 1027,9 hPa 0,0 l/m 14,7 km/h (3 Bft) SW 225 -6,1 C -7,5 C 17,6 km/h (3 Bft)
18.02.2019 05:02 -0,5 C -1,3 C 66 % 1027,9 hPa 0,0 l/m 14,5 km/h (3 Bft) SW 225 -6,1 C -7,3 C 15,2 km/h (3 Bft)
18.02.2019 05:00 -0,3 C -1,3 C 66 % 1027,8 hPa 0,0 l/m 14,5 km/h (3 Bft) S 180 -5,9 C -7,0 C 16,9 km/h (3 Bft)
_ Min-Zeit 06:40 06:06 11:28 03:02 - 11:20 - - 06:20 06:24 10:42
Minimum _ -1,5 C -1,5 C 52 % 1022,4 hPa - 0,0 km/h (0 Bft) - - -6,7 C -11,4 C 0,0 km/h (0 Bft)
_ Max-Zeit 14:32 10:10 03:54 05:02 05:00 06:24 - - 14:48 14:32 00:16
Maximum _ 9,2 C 0,0 C 70 % 1027,9 hPa 0,0 l/m 20,0 km/h
SW (4 Bft)
- - 0,0 C 9,2 C 25,6 km/h
SW (4 Bft)
Durchschnitt _ 3,1 C -0,5 C 62 % 1025,1 hPa #0,0 l/m 9,4 km/h (2 Bft) SW - -3,4 C -0,6 C 10,4 km/h (2 Bft)